PAL102 RPLL-KLAX

Flight info

Callsign PAL102
Flight time 11h 48m
Altitude 31000
Route JOM2R JOM A590 MDE/N0497F330 V75 CANAI DCT UKATA DCT 34N150E 38N160E 42N170E/N0479F350 45N180E 47N170W 47N160W 46N150W 43N140W/N0470F370 40N130W DCT ALCOA DCT HUNTS DCT BURGL BAYST1
Aircraft B77W/H-SDE1E2E3FGHIJ2J3J4J5M1RWXY/LB1D1

Departure

Time 2026-04-24 14:41
Airport Ninoy Aquino International Airport (RPLL)

Arrival

Time 2026-04-25 02:29
Airport Los Angeles International Airport (KLAX)
Time Latitude Longitude Altitude Speed Heading
2026-04-24 13:42 14.50516 121.00725 88 ft 0 kts 277°
2026-04-24 14:27 14.50515 121.00732 88 ft 2 kts 277°
2026-04-24 14:28 14.50513 121.00745 88 ft 2 kts 270°
2026-04-24 14:28 14.50517 121.00763 88 ft 2 kts 242°
2026-04-24 14:28 14.50527 121.00777 88 ft 2 kts 219°
2026-04-24 14:28 14.50542 121.00786 88 ft 2 kts 196°
2026-04-24 14:29 14.50555 121.00788 88 ft 2 kts 180°
2026-04-24 14:29 14.50572 121.00786 88 ft 2 kts 158°
2026-04-24 14:29 14.50578 121.00783 88 ft 0 kts 153°
2026-04-24 14:33 14.50564 121.00791 88 ft 4 kts 149°
2026-04-24 14:33 14.50525 121.00813 88 ft 7 kts 154°
2026-04-24 14:33 14.50473 121.00833 88 ft 7 kts 169°
2026-04-24 14:33 14.50418 121.00831 88 ft 7 kts 204°
2026-04-24 14:34 14.50377 121.00789 88 ft 8 kts 236°
2026-04-24 14:34 14.50340 121.00731 88 ft 10 kts 238°
2026-04-24 14:34 14.50302 121.00660 88 ft 11 kts 242°
2026-04-24 14:34 14.50258 121.00578 88 ft 13 kts 241°
2026-04-24 14:35 14.50209 121.00489 88 ft 15 kts 240°
2026-04-24 14:35 14.50151 121.00387 88 ft 17 kts 240°
2026-04-24 14:35 14.50089 121.00275 88 ft 18 kts 240°
2026-04-24 14:35 14.50021 121.00151 88 ft 19 kts 240°
2026-04-24 14:36 14.49958 121.00037 88 ft 16 kts 240°
2026-04-24 14:36 14.49921 120.99977 88 ft 6 kts 221°
2026-04-24 14:36 14.49896 120.99967 88 ft 0 kts 176°
2026-04-24 14:38 14.49892 120.99968 88 ft 1 kts 169°
2026-04-24 14:39 14.49841 120.99989 88 ft 10 kts 142°
2026-04-24 14:39 14.49816 121.00037 88 ft 10 kts 98°
2026-04-24 14:39 14.49842 121.00116 88 ft 0 kts 60°
2026-04-24 14:40 14.49842 121.00117 88 ft 0 kts 60°
2026-04-24 14:40 14.49862 121.00153 88 ft 24 kts 60°
2026-04-24 14:40 14.50229 121.00813 88 ft 120 kts 60°
2026-04-24 14:40 14.50820 121.01872 90 ft 183 kts 61°
2026-04-24 14:41 14.51307 121.02725 376 ft 191 kts 60°
2026-04-24 14:41 14.52229 121.04403 1366 ft 194 kts 62°
2026-04-24 14:41 14.52901 121.05695 1704 ft 207 kts 60°
2026-04-24 14:41 14.53690 121.07087 1966 ft 224 kts 58°
2026-04-24 14:42 14.54281 121.08097 2190 ft 235 kts 59°
2026-04-24 14:42 14.55464 121.10236 2804 ft 251 kts 60°
2026-04-24 14:42 14.56072 121.11391 3212 ft 256 kts 59°
2026-04-24 14:42 14.57255 121.13720 3951 ft 267 kts 71°
2026-04-24 14:43 14.57591 121.15672 4538 ft 273 kts 85°
2026-04-24 14:43 14.57748 121.17694 5313 ft 272 kts 84°
2026-04-24 14:43 14.57947 121.19674 5957 ft 274 kts 84°
2026-04-24 14:43 14.58097 121.21024 6375 ft 277 kts 83°
2026-04-24 14:44 14.58331 121.23081 6974 ft 280 kts 83°
2026-04-24 14:44 14.58663 121.25977 7825 ft 284 kts 83°
2026-04-24 14:44 14.58822 121.27376 8205 ft 287 kts 83°
2026-04-24 14:44 14.59165 121.30424 8975 ft 293 kts 83°
2026-04-24 14:45 14.59428 121.32761 9609 ft 295 kts 83°
2026-04-24 14:45 14.59696 121.35139 10210 ft 300 kts 83°
2026-04-24 14:45 14.59980 121.37669 10492 ft 318 kts 83°
2026-04-24 14:45 14.60275 121.40294 10731 ft 337 kts 83°
2026-04-24 14:46 14.60581 121.43025 10984 ft 355 kts 83°
2026-04-24 14:46 14.60908 121.45941 11248 ft 372 kts 83°
2026-04-24 14:46 14.61252 121.49023 11642 ft 385 kts 83°
2026-04-24 14:46 14.61590 121.52045 12260 ft 390 kts 83°
2026-04-24 14:47 14.61811 121.54024 12725 ft 392 kts 83°
2026-04-24 14:47 14.62265 121.58102 13636 ft 396 kts 83°
2026-04-24 14:47 14.62594 121.61052 14232 ft 401 kts 83°
2026-04-24 14:47 14.62922 121.64005 14848 ft 405 kts 83°
2026-04-24 14:48 14.63143 121.65994 15251 ft 408 kts 83°
2026-04-24 14:48 14.63590 121.70017 16038 ft 414 kts 83°
2026-04-24 14:48 14.63926 121.73055 16593 ft 418 kts 83°
2026-04-24 14:48 14.64154 121.75114 16963 ft 421 kts 83°
2026-04-24 14:49 14.64628 121.79397 17702 ft 428 kts 83°
2026-04-24 14:49 14.64993 121.82707 18300 ft 431 kts 83°
2026-04-24 14:49 14.65342 121.85868 18856 ft 435 kts 83°
2026-04-24 14:49 14.65697 121.89088 19424 ft 438 kts 83°
2026-04-24 14:50 14.66047 121.92276 19960 ft 441 kts 83°
2026-04-24 14:50 14.66399 121.95475 20457 ft 446 kts 84°
2026-04-24 14:50 14.66755 121.98717 20970 ft 449 kts 84°
2026-04-24 14:50 14.67120 122.02048 21492 ft 452 kts 84°
2026-04-24 14:51 14.67487 122.05404 21974 ft 456 kts 84°
2026-04-24 14:51 14.67849 122.08724 22458 ft 460 kts 84°
2026-04-24 14:51 14.68210 122.12031 22938 ft 463 kts 84°
2026-04-24 14:51 14.68576 122.15387 23424 ft 466 kts 84°
2026-04-24 14:52 14.68942 122.18746 23918 ft 468 kts 84°
2026-04-24 14:52 14.69309 122.22130 24405 ft 470 kts 84°
2026-04-24 14:52 14.69766 122.25577 24865 ft 474 kts 78°
2026-04-24 14:52 14.70663 122.28839 25266 ft 477 kts 69°
2026-04-24 14:53 14.72069 122.31977 25669 ft 481 kts 60°
2026-04-24 14:53 14.73928 122.34831 26092 ft 483 kts 51°
2026-04-24 14:53 14.76238 122.37384 26530 ft 485 kts 41°
2026-04-24 14:53 14.78882 122.39584 26938 ft 487 kts 36°
2026-04-24 14:54 14.81678 122.41736 27367 ft 490 kts 36°
2026-04-24 14:54 14.84401 122.43827 27772 ft 493 kts 36°
2026-04-24 14:54 14.87181 122.45967 28172 ft 496 kts 36°
2026-04-24 14:54 14.89952 122.48106 28567 ft 499 kts 36°
2026-04-24 14:55 14.91786 122.49522 28843 ft 501 kts 36°
2026-04-24 14:55 14.95541 122.52428 29433 ft 503 kts 36°
2026-04-24 14:55 14.98338 122.54594 30031 ft 501 kts 36°
2026-04-24 14:55 15.01158 122.56781 30713 ft 497 kts 36°
2026-04-24 14:56 15.03980 122.58971 30957 ft 500 kts 37°
2026-04-24 14:56 15.09507 122.63263 30973 ft 494 kts 37°
2026-04-24 14:57 15.15023 122.67551 30973 ft 495 kts 37°
2026-04-24 14:57 15.20552 122.71852 30974 ft 505 kts 37°
2026-04-24 14:58 15.26203 122.76253 30972 ft 503 kts 37°
2026-04-24 14:58 15.31799 122.80613 30972 ft 503 kts 37°
2026-04-24 14:59 15.37396 122.84976 30972 ft 502 kts 37°
2026-04-24 14:59 15.43030 122.89373 30972 ft 503 kts 37°
2026-04-24 15:00 15.48607 122.93728 30972 ft 502 kts 37°
2026-04-24 15:00 15.54191 122.98091 30971 ft 502 kts 37°
2026-04-24 15:01 15.60086 123.02700 30972 ft 501 kts 37°
2026-04-24 15:01 15.66223 123.07503 30972 ft 502 kts 37°
2026-04-24 15:02 15.72218 123.12197 30971 ft 501 kts 37°
2026-04-24 15:02 15.78213 123.16896 30971 ft 502 kts 37°
2026-04-24 15:03 15.83329 123.20908 30974 ft 501 kts 37°
2026-04-24 15:03 15.90447 123.26495 30976 ft 501 kts 37°
2026-04-24 15:04 15.96675 123.31388 30978 ft 501 kts 37°
2026-04-24 15:04 16.02855 123.36247 30978 ft 501 kts 37°
2026-04-24 15:05 16.09102 123.41162 30979 ft 501 kts 37°
2026-04-24 15:05 16.15238 123.45995 30979 ft 501 kts 37°
2026-04-24 15:06 16.21360 123.50819 30985 ft 501 kts 37°
2026-04-24 15:06 16.26400 123.54793 30983 ft 501 kts 37°
2026-04-24 15:07 16.32266 123.59423 30978 ft 502 kts 37°
2026-04-24 15:07 16.39327 123.65002 30979 ft 500 kts 37°
2026-04-24 15:08 16.45251 123.69685 30978 ft 500 kts 37°
2026-04-24 15:08 16.51193 123.74386 30975 ft 501 kts 37°
2026-04-24 15:09 16.57120 123.79079 30972 ft 502 kts 37°
2026-04-24 15:09 16.62846 123.83617 30970 ft 502 kts 37°
2026-04-24 15:10 16.68520 123.88116 30974 ft 502 kts 37°
2026-04-24 15:10 16.74141 123.92577 30972 ft 501 kts 37°
2026-04-24 15:11 16.79787 123.97062 30974 ft 501 kts 37°
2026-04-24 15:11 16.85493 124.01598 30973 ft 501 kts 37°
2026-04-24 15:12 16.91133 124.06084 30973 ft 502 kts 37°
2026-04-24 15:12 16.98704 124.12112 30973 ft 502 kts 37°
2026-04-24 15:13 17.05396 124.17446 30984 ft 501 kts 37°
2026-04-24 15:13 17.10089 124.21188 30992 ft 500 kts 37°
2026-04-24 15:14 17.15724 124.25687 30991 ft 501 kts 37°
2026-04-24 15:14 17.22458 124.31066 30995 ft 502 kts 37°
2026-04-24 15:15 17.28114 124.35589 30992 ft 502 kts 37°
2026-04-24 15:15 17.33826 124.40160 30992 ft 503 kts 37°
2026-04-24 15:16 17.39626 124.44804 30992 ft 503 kts 37°
2026-04-24 15:16 17.45285 124.49342 30993 ft 503 kts 37°
2026-04-24 15:17 17.51161 124.54056 30993 ft 503 kts 37°
2026-04-24 15:17 17.57206 124.58910 30991 ft 502 kts 37°
2026-04-24 15:18 17.63253 124.63769 30994 ft 503 kts 37°
2026-04-24 15:18 17.69158 124.68519 30990 ft 503 kts 37°
2026-04-24 15:19 17.73160 124.71740 30990 ft 504 kts 37°
2026-04-24 15:19 17.80248 124.77450 30984 ft 503 kts 37°
2026-04-24 15:20 17.86182 124.82235 30977 ft 504 kts 37°
2026-04-24 15:20 17.92136 124.87040 30971 ft 504 kts 37°
2026-04-24 15:21 17.99072 124.92642 30973 ft 503 kts 37°
2026-04-24 15:21 18.04936 124.97384 30973 ft 504 kts 37°
2026-04-24 15:22 18.10605 125.01971 30977 ft 504 kts 37°
2026-04-24 15:23 18.18981 125.08756 30989 ft 505 kts 37°
2026-04-24 15:23 18.27320 125.15520 30992 ft 504 kts 37°
2026-04-24 15:25 18.40276 125.26045 30994 ft 505 kts 37°
2026-04-24 15:26 18.55117 125.38127 30994 ft 507 kts 37°
2026-04-24 15:27 18.71834 125.51726 30992 ft 506 kts 37°
2026-04-24 15:29 18.88678 125.65319 30994 ft 508 kts 37°
2026-04-24 15:31 19.07364 125.80407 30994 ft 508 kts 37°
2026-04-24 15:33 19.30825 125.99368 30993 ft 509 kts 37°
2026-04-24 15:34 19.43026 126.09224 30993 ft 510 kts 37°
2026-04-24 15:35 19.58971 126.22189 30993 ft 510 kts 37°
2026-04-24 15:36 19.64635 126.26796 30994 ft 511 kts 37°
2026-04-24 15:36 19.73057 126.33647 30995 ft 511 kts 37°
2026-04-24 15:37 19.78729 126.38257 30995 ft 510 kts 37°
2026-04-24 15:37 19.84331 126.42821 30995 ft 511 kts 37°
2026-04-24 15:38 19.89024 126.46652 30995 ft 510 kts 37°
2026-04-24 15:38 19.95624 126.52048 31001 ft 511 kts 37°
2026-04-24 15:39 20.01247 126.56653 31006 ft 511 kts 37°
2026-04-24 15:39 20.06869 126.61253 31002 ft 511 kts 37°
2026-04-24 15:40 20.12538 126.65899 30999 ft 513 kts 37°
2026-04-24 15:40 20.18120 126.70592 30986 ft 512 kts 38°
2026-04-24 15:41 20.23652 126.75361 30977 ft 512 kts 38°
2026-04-24 15:41 20.29200 126.80150 30985 ft 514 kts 38°
2026-04-24 15:42 20.34748 126.84943 30989 ft 514 kts 38°
2026-04-24 15:42 20.40274 126.89722 30991 ft 514 kts 38°
2026-04-24 15:43 20.44902 126.93727 30992 ft 514 kts 38°
2026-04-24 15:43 20.51354 126.99318 30993 ft 515 kts 38°
2026-04-24 15:44 20.56941 127.04163 30993 ft 513 kts 38°
2026-04-24 15:44 20.62465 127.08958 30991 ft 516 kts 38°
2026-04-24 15:45 20.68032 127.13796 30992 ft 515 kts 38°
2026-04-24 15:45 20.73603 127.18642 30993 ft 516 kts 38°
2026-04-24 15:46 20.78208 127.22651 30993 ft 516 kts 38°
2026-04-24 15:46 20.84737 127.28340 30996 ft 516 kts 38°
2026-04-24 15:47 20.90262 127.33160 30997 ft 516 kts 38°
2026-04-24 15:47 20.95837 127.38029 30995 ft 517 kts 38°
2026-04-24 15:48 21.01414 127.42881 30994 ft 516 kts 36°
2026-04-24 15:48 21.07115 127.47525 30997 ft 517 kts 36°
2026-04-24 15:49 21.12842 127.52182 30995 ft 518 kts 36°
2026-04-24 15:49 21.18601 127.56879 30994 ft 516 kts 36°
2026-04-24 15:50 21.24309 127.61546 30995 ft 517 kts 36°
2026-04-24 15:50 21.30027 127.66228 30990 ft 517 kts 36°
2026-04-24 15:51 21.35735 127.70908 30991 ft 516 kts 36°
2026-04-24 15:51 21.41432 127.75585 30989 ft 517 kts 36°
2026-04-24 15:52 21.47167 127.80298 30992 ft 518 kts 36°
2026-04-24 15:52 21.52897 127.85014 30990 ft 518 kts 36°
2026-04-24 15:53 21.58989 127.90031 30992 ft 517 kts 36°
2026-04-24 15:53 21.65152 127.95113 30990 ft 518 kts 36°
2026-04-24 15:54 21.71227 128.00128 30991 ft 519 kts 36°
2026-04-24 15:54 21.77352 128.05190 30992 ft 517 kts 36°
2026-04-24 15:55 21.83438 128.10225 30993 ft 519 kts 36°
2026-04-24 15:55 21.89551 128.15288 30993 ft 519 kts 36°
2026-04-24 15:56 21.95630 128.20328 30992 ft 518 kts 36°
2026-04-24 15:56 22.01795 128.25446 30996 ft 520 kts 36°
2026-04-24 15:57 22.07868 128.30493 30999 ft 520 kts 36°
2026-04-24 15:57 22.14047 128.35632 30996 ft 521 kts 36°
2026-04-24 15:58 22.20241 128.40793 30998 ft 521 kts 36°
2026-04-24 15:58 22.26396 128.45924 30995 ft 520 kts 36°
2026-04-24 15:59 22.32581 128.51088 30995 ft 523 kts 36°
2026-04-24 15:59 22.38847 128.56326 30998 ft 521 kts 36°
2026-04-24 16:00 22.45034 128.61502 30995 ft 522 kts 36°
2026-04-24 16:00 22.51124 128.66605 30982 ft 522 kts 36°
2026-04-24 16:01 22.57215 128.71713 30981 ft 523 kts 36°
2026-04-24 16:01 22.63206 128.76743 30976 ft 523 kts 36°
2026-04-24 16:02 22.68142 128.80891 30975 ft 523 kts 36°
2026-04-24 16:02 22.75052 128.86705 30974 ft 523 kts 36°
2026-04-24 16:03 22.81148 128.91841 30976 ft 524 kts 36°
2026-04-24 16:03 22.86212 128.96114 30977 ft 523 kts 36°
2026-04-24 16:04 22.93269 129.02072 30975 ft 525 kts 36°
2026-04-24 16:04 22.98417 129.06424 30976 ft 525 kts 36°
2026-04-24 16:05 23.08765 129.14543 30978 ft 523 kts 32°
2026-04-24 16:06 23.18249 129.21716 30980 ft 525 kts 32°
2026-04-24 16:07 23.27741 129.28937 30982 ft 525 kts 32°
2026-04-24 16:07 23.37285 129.36223 30991 ft 527 kts 32°
2026-04-24 16:08 23.46673 129.43405 30995 ft 526 kts 32°
2026-04-24 16:09 23.56020 129.50572 30997 ft 527 kts 32°
2026-04-24 16:09 23.62399 129.55470 30998 ft 528 kts 32°
2026-04-24 16:11 23.77948 129.67436 30987 ft 528 kts 32°
2026-04-24 16:11 23.84203 129.72261 30982 ft 529 kts 32°
2026-04-24 16:12 23.92373 129.78571 30974 ft 529 kts 32°
2026-04-24 16:13 24.02720 129.86575 30974 ft 530 kts 32°
2026-04-24 16:14 24.14939 129.96050 30968 ft 532 kts 32°
2026-04-24 16:14 24.24133 130.03194 30972 ft 532 kts 32°
2026-04-24 16:15 24.33315 130.10341 30976 ft 533 kts 32°
2026-04-24 16:16 24.42538 130.17364 30975 ft 533 kts 31°
2026-04-24 16:17 24.58034 130.29015 30978 ft 534 kts 31°
2026-04-24 16:18 24.70414 130.38361 30979 ft 535 kts 31°
2026-04-24 16:19 24.79661 130.45360 30980 ft 535 kts 30°
2026-04-24 16:20 24.88933 130.52391 30983 ft 538 kts 30°
2026-04-24 16:20 24.98197 130.59430 30986 ft 536 kts 30°
2026-04-24 16:21 25.06397 130.65671 30981 ft 537 kts 31°
2026-04-24 16:22 25.13536 130.71112 30972 ft 539 kts 31°
2026-04-24 16:22 25.21788 130.77412 30971 ft 540 kts 31°
2026-04-24 16:23 25.29014 130.82939 30977 ft 541 kts 31°
2026-04-24 16:24 25.38263 130.90024 30976 ft 539 kts 31°
2026-04-24 16:24 25.44448 130.94768 30973 ft 541 kts 31°
2026-04-24 16:25 25.50644 130.99528 30976 ft 542 kts 31°
2026-04-24 16:25 25.56840 131.04295 30975 ft 542 kts 31°
2026-04-24 16:26 25.66166 131.11479 30985 ft 544 kts 30°
2026-04-24 16:27 25.75494 131.18680 30991 ft 542 kts 31°
2026-04-24 16:27 25.81780 131.24022 30995 ft 549 kts 41°
2026-04-24 16:28 25.86160 131.30095 30999 ft 557 kts 57°
2026-04-24 16:28 25.88572 131.35651 30995 ft 556 kts 69°
2026-04-24 16:28 25.91227 131.43796 31000 ft 559 kts 70°
2026-04-24 16:29 25.93415 131.50568 30998 ft 560 kts 70°
2026-04-24 16:30 25.99121 131.68176 30975 ft 560 kts 70°
2026-04-24 16:30 26.01750 131.76291 30965 ft 559 kts 70°
2026-04-24 16:31 26.03944 131.83072 30970 ft 559 kts 69°
2026-04-24 16:31 26.07022 131.92600 30975 ft 559 kts 70°
2026-04-24 16:32 26.09222 131.99422 31269 ft 567 kts 70°
2026-04-24 16:32 26.10990 132.04915 32244 ft 561 kts 70°
2026-04-24 16:32 26.12292 132.08963 32863 ft 559 kts 69°
2026-04-24 16:33 26.14933 132.17192 32964 ft 559 kts 69°
2026-04-24 16:33 26.17606 132.25536 32968 ft 558 kts 70°
2026-04-24 16:34 26.20249 132.33804 32967 ft 555 kts 69°
2026-04-24 16:34 26.22870 132.42021 32960 ft 559 kts 69°
2026-04-24 16:35 26.25523 132.50357 32970 ft 556 kts 69°
2026-04-24 16:35 26.28169 132.58691 32972 ft 558 kts 70°
2026-04-24 16:36 26.30776 132.66919 32967 ft 557 kts 70°
2026-04-24 16:36 26.33374 132.75140 32959 ft 558 kts 70°
2026-04-24 16:37 26.35966 132.83357 32960 ft 558 kts 70°
2026-04-24 16:37 26.38570 132.91634 32963 ft 558 kts 70°
2026-04-24 16:38 26.41140 132.99820 32963 ft 558 kts 70°
2026-04-24 16:38 26.43704 133.08008 32963 ft 558 kts 70°
2026-04-24 16:39 26.46278 133.16244 32970 ft 558 kts 70°
2026-04-24 16:39 26.48865 133.24542 32974 ft 558 kts 70°
2026-04-24 16:40 26.51405 133.32704 32977 ft 557 kts 70°
2026-04-24 16:40 26.53537 133.39574 32976 ft 558 kts 70°
2026-04-24 16:41 26.56077 133.47774 32969 ft 558 kts 70°
2026-04-24 16:41 26.58621 133.56003 32969 ft 558 kts 71°
2026-04-24 16:42 26.61585 133.65616 32968 ft 557 kts 71°
2026-04-24 16:42 26.64105 133.73813 32957 ft 559 kts 71°
2026-04-24 16:43 26.66629 133.82037 32953 ft 559 kts 71°
2026-04-24 16:43 26.69160 133.90306 32952 ft 559 kts 71°
2026-04-24 16:44 26.71273 133.97224 32951 ft 560 kts 71°
2026-04-24 16:44 26.74788 134.06616 32956 ft 557 kts 58°
2026-04-24 16:45 26.78872 134.14026 32953 ft 557 kts 56°
2026-04-24 16:45 26.82928 134.21309 32955 ft 558 kts 56°
2026-04-24 16:46 26.87039 134.28708 32958 ft 557 kts 56°
2026-04-24 16:46 26.91158 134.36140 32957 ft 557 kts 56°
2026-04-24 16:47 26.94588 134.42339 32960 ft 557 kts 56°
2026-04-24 16:47 26.99379 134.51016 32959 ft 558 kts 56°
2026-04-24 16:48 27.03476 134.58452 32963 ft 557 kts 56°
2026-04-24 16:48 27.07546 134.65851 32963 ft 558 kts 56°
2026-04-24 16:49 27.11636 134.73299 32945 ft 558 kts 56°
2026-04-24 16:49 27.15021 134.79472 32945 ft 557 kts 57°
2026-04-24 16:50 27.19768 134.88144 32944 ft 558 kts 57°
2026-04-24 16:50 27.23824 134.95567 32943 ft 559 kts 57°
2026-04-24 16:51 27.27885 135.03012 32945 ft 561 kts 57°
2026-04-24 16:51 27.31971 135.10516 32944 ft 561 kts 56°
2026-04-24 16:52 27.36029 135.17984 32945 ft 560 kts 57°
2026-04-24 16:52 27.40092 135.25468 32946 ft 561 kts 57°
2026-04-24 16:53 27.44146 135.32954 32952 ft 561 kts 56°
2026-04-24 16:53 27.48214 135.40475 32950 ft 562 kts 57°
2026-04-24 16:54 27.52244 135.47943 32951 ft 561 kts 57°
2026-04-24 16:54 27.56300 135.55469 32953 ft 562 kts 56°
2026-04-24 16:55 27.60342 135.62982 32953 ft 563 kts 57°
2026-04-24 16:55 27.63720 135.69272 32929 ft 563 kts 57°
2026-04-24 16:56 27.67760 135.76804 32933 ft 564 kts 57°
2026-04-24 16:56 27.72489 135.85640 32931 ft 563 kts 57°
2026-04-24 16:57 27.76516 135.93178 32931 ft 563 kts 57°
2026-04-24 16:57 27.80536 136.00717 32933 ft 563 kts 57°
2026-04-24 16:58 27.84566 136.08289 32933 ft 561 kts 57°
2026-04-24 16:58 27.88570 136.15822 32937 ft 563 kts 57°
2026-04-24 16:59 27.92594 136.23407 32937 ft 563 kts 57°
2026-04-24 17:00 27.98636 136.34824 32939 ft 563 kts 57°
2026-04-24 17:00 28.04635 136.46187 32937 ft 565 kts 57°
2026-04-24 17:01 28.10653 136.57619 32942 ft 564 kts 57°
2026-04-24 17:02 28.16658 136.69057 32919 ft 564 kts 57°
2026-04-24 17:02 28.20668 136.76710 32918 ft 565 kts 57°
2026-04-24 17:03 28.26650 136.88158 32927 ft 564 kts 57°
2026-04-24 17:04 28.30641 136.95808 32921 ft 565 kts 57°
2026-04-24 17:04 28.35956 137.06023 32923 ft 564 kts 57°
2026-04-24 17:05 28.40583 137.14935 32920 ft 565 kts 57°
2026-04-24 17:06 28.45903 137.25205 32917 ft 565 kts 57°
2026-04-24 17:06 28.52512 137.38001 32916 ft 566 kts 57°
2026-04-24 17:07 28.56497 137.45732 32920 ft 566 kts 57°
2026-04-24 17:08 28.64432 137.61174 32923 ft 567 kts 57°
2026-04-24 17:08 28.68406 137.68927 32904 ft 567 kts 58°
2026-04-24 17:09 28.76311 137.84399 32905 ft 568 kts 58°
2026-04-24 17:10 28.83545 137.98607 32917 ft 568 kts 57°
2026-04-24 17:12 29.00000 138.31107 32923 ft 570 kts 57°
2026-04-24 18:54 36.76018 156.55315 32841 ft 599 kts 63°
2026-04-24 18:55 36.82173 156.71544 32808 ft 598 kts 62°
2026-04-24 18:56 36.85755 156.81021 32808 ft 601 kts 63°
2026-04-24 18:56 36.89351 156.90573 32801 ft 597 kts 62°
2026-04-24 18:57 36.92911 157.00052 32803 ft 602 kts 62°
2026-04-24 18:57 36.96436 157.09468 32804 ft 601 kts 64°
2026-04-24 18:58 36.99983 157.18974 32804 ft 601 kts 63°
2026-04-24 18:58 37.02947 157.26936 32805 ft 601 kts 63°
2026-04-24 18:59 37.06490 157.36488 32795 ft 601 kts 63°
2026-04-24 18:59 37.10595 157.47584 32793 ft 600 kts 64°
2026-04-24 19:00 37.14131 157.57179 32788 ft 603 kts 63°
2026-04-24 19:00 37.17675 157.66823 32781 ft 602 kts 64°
2026-04-24 19:01 37.21217 157.76495 32761 ft 602 kts 64°
2026-04-24 19:01 37.24691 157.86009 32748 ft 603 kts 65°
2026-04-24 19:02 37.27633 157.94089 32752 ft 604 kts 64°
2026-04-24 19:02 37.31727 158.05370 32752 ft 606 kts 65°
2026-04-24 19:03 37.35242 158.15088 32751 ft 603 kts 64°
2026-04-24 19:03 37.38145 158.23140 32751 ft 607 kts 64°
2026-04-24 19:04 37.42241 158.34532 32744 ft 608 kts 63°
2026-04-24 19:04 37.45117 158.42557 32747 ft 608 kts 64°
2026-04-24 19:05 37.49164 158.53886 32743 ft 609 kts 64°
2026-04-24 19:05 37.52659 158.63707 32739 ft 613 kts 64°
2026-04-24 19:06 37.55529 158.71796 32704 ft 610 kts 64°
2026-04-24 19:06 37.59526 158.83095 32704 ft 610 kts 64°
2026-04-24 19:07 37.62730 158.92183 32702 ft 614 kts 64°
2026-04-24 19:07 37.65386 158.99736 32703 ft 616 kts 65°
2026-04-24 19:08 37.69351 159.11052 32694 ft 611 kts 64°
2026-04-24 19:08 37.72792 159.20906 32694 ft 612 kts 63°
2026-04-24 19:09 37.76174 159.30626 32700 ft 613 kts 64°
2026-04-24 19:09 37.79582 159.40449 32693 ft 610 kts 64°
2026-04-24 19:10 37.82918 159.50098 32688 ft 609 kts 64°
2026-04-24 19:10 37.86138 159.59438 32683 ft 613 kts 64°
2026-04-24 19:11 37.89376 159.68861 32649 ft 612 kts 65°
2026-04-24 19:11 37.92660 159.78455 32655 ft 612 kts 64°
2026-04-24 19:12 37.95309 159.86212 32649 ft 616 kts 64°
2026-04-24 19:12 37.99017 159.97105 32648 ft 609 kts 64°
2026-04-24 19:13 38.01911 160.05055 32660 ft 611 kts 57°
2026-04-24 19:13 38.06831 160.15317 32646 ft 603 kts 53°
2026-04-24 19:14 38.10248 160.22418 32647 ft 602 kts 54°
2026-04-24 19:14 38.15342 160.33171 32643 ft 603 kts 54°
2026-04-24 19:15 38.18951 160.40875 32633 ft 604 kts 54°
2026-04-24 19:15 38.23152 160.49904 32641 ft 606 kts 54°
2026-04-24 19:16 38.29955 160.64633 32628 ft 604 kts 54°
2026-04-24 19:16 38.33332 160.71985 32604 ft 600 kts 55°
2026-04-24 19:17 38.38311 160.82857 32596 ft 603 kts 56°
2026-04-24 19:17 38.42536 160.92122 32603 ft 602 kts 56°
2026-04-24 19:18 38.45981 160.99693 32608 ft 604 kts 56°
2026-04-24 19:18 38.50905 161.10553 32592 ft 605 kts 56°
2026-04-24 19:19 38.54359 161.18196 32596 ft 602 kts 56°
2026-04-24 19:19 38.58867 161.28194 32592 ft 604 kts 56°
2026-04-24 19:20 38.62111 161.35406 32600 ft 610 kts 57°
2026-04-24 19:20 38.66673 161.45584 32589 ft 608 kts 56°
2026-04-24 19:21 38.70689 161.54568 32590 ft 609 kts 55°
2026-04-24 19:21 38.74723 161.63621 32585 ft 605 kts 56°
2026-04-24 19:22 38.78059 161.71123 32555 ft 612 kts 56°
2026-04-24 19:22 38.82744 161.81689 32549 ft 609 kts 57°
2026-04-24 19:23 38.86206 161.89523 32550 ft 614 kts 57°
2026-04-24 19:23 38.91124 162.00687 32543 ft 607 kts 57°
2026-04-24 19:24 38.94494 162.08354 32559 ft 614 kts 57°
2026-04-24 19:24 38.98484 162.17462 32549 ft 610 kts 57°
2026-04-24 19:25 39.03245 162.28363 32557 ft 613 kts 56°
2026-04-24 19:25 39.07422 162.37959 32553 ft 610 kts 57°
2026-04-24 19:26 39.11647 162.47693 32552 ft 608 kts 57°
2026-04-24 19:26 39.15118 162.55714 32544 ft 607 kts 58°
2026-04-24 19:27 39.19231 162.65242 32547 ft 606 kts 58°
2026-04-24 19:27 39.23870 162.76027 32517 ft 607 kts 59°
2026-04-24 19:28 39.27750 162.85077 32516 ft 606 kts 59°
2026-04-24 19:28 39.31510 162.93870 32519 ft 605 kts 59°
2026-04-24 19:29 39.37214 163.07260 32517 ft 605 kts 57°
2026-04-24 19:30 39.40428 163.14830 32512 ft 608 kts 58°
2026-04-24 19:30 39.45133 163.25943 32521 ft 610 kts 58°
2026-04-24 19:31 39.49207 163.35602 32520 ft 606 kts 58°
2026-04-24 19:31 39.53098 163.44852 32510 ft 609 kts 57°
2026-04-24 19:32 39.56891 163.53896 32523 ft 610 kts 58°
2026-04-24 19:32 39.60707 163.63022 32520 ft 609 kts 57°
2026-04-24 19:33 39.64458 163.72023 32502 ft 610 kts 58°
2026-04-24 19:33 39.68182 163.80980 32500 ft 610 kts 60°
2026-04-24 19:34 39.72184 163.90636 32503 ft 611 kts 60°
2026-04-24 19:34 39.75544 163.98770 32496 ft 614 kts 58°
2026-04-24 19:35 39.80024 164.09647 32498 ft 614 kts 59°
2026-04-24 19:35 39.84062 164.19485 32496 ft 611 kts 58°
2026-04-24 19:36 39.87335 164.27480 32505 ft 614 kts 58°
2026-04-24 19:36 39.91316 164.37233 32501 ft 614 kts 58°
2026-04-24 19:37 39.95883 164.48462 32504 ft 618 kts 59°
2026-04-24 19:37 39.99177 164.56589 32509 ft 614 kts 59°
2026-04-24 19:38 40.03778 164.67975 32480 ft 616 kts 60°
2026-04-24 19:38 40.06866 164.75641 32488 ft 615 kts 59°
2026-04-24 19:39 40.10809 164.85455 32470 ft 617 kts 60°
2026-04-24 19:39 40.15359 164.96826 32480 ft 616 kts 59°
2026-04-24 19:40 40.19096 165.06195 32479 ft 615 kts 59°
2026-04-24 19:40 40.23046 165.16130 32479 ft 616 kts 59°
2026-04-24 19:41 40.26194 165.24074 32489 ft 615 kts 59°
2026-04-24 19:41 40.30779 165.35677 32495 ft 616 kts 59°
2026-04-24 19:42 40.34397 165.44865 32501 ft 618 kts 59°
2026-04-24 19:42 40.38097 165.54292 32512 ft 619 kts 59°
2026-04-24 19:43 40.42054 165.64407 32522 ft 618 kts 58°
2026-04-24 19:43 40.45985 165.74490 32497 ft 618 kts 59°
2026-04-24 19:44 40.49946 165.84683 32507 ft 623 kts 60°
2026-04-24 19:44 40.53943 165.95006 32512 ft 617 kts 59°
2026-04-24 19:45 40.57232 166.03528 32511 ft 617 kts 61°
2026-04-24 19:45 40.61155 166.13725 32519 ft 617 kts 59°
2026-04-24 19:46 40.65743 166.25694 32515 ft 618 kts 59°
2026-04-24 19:46 40.69675 166.35989 32523 ft 616 kts 60°
2026-04-24 19:47 40.73593 166.46286 32520 ft 618 kts 60°
2026-04-24 19:47 40.77521 166.56648 32548 ft 616 kts 59°
2026-04-24 19:48 40.81105 166.66132 32542 ft 615 kts 61°
2026-04-24 19:48 40.86291 166.79909 32516 ft 618 kts 59°
2026-04-24 19:49 40.94519 167.01903 32534 ft 618 kts 60°
2026-04-24 19:50 41.02226 167.22659 32544 ft 614 kts 60°
2026-04-24 19:51 41.07912 167.38069 32549 ft 616 kts 60°
2026-04-24 19:52 41.13004 167.51939 32572 ft 608 kts 60°
2026-04-24 19:52 41.17434 167.64055 32565 ft 611 kts 60°
2026-04-24 19:53 41.20553 167.72620 32541 ft 609 kts 62°
2026-04-24 19:54 41.26147 167.88045 32560 ft 610 kts 62°
2026-04-24 19:54 41.29897 167.98433 32572 ft 606 kts 61°
2026-04-24 19:55 41.33016 168.07100 32590 ft 608 kts 61°
2026-04-24 19:55 41.37430 168.19409 32596 ft 610 kts 62°
2026-04-24 19:56 41.41687 168.31337 32605 ft 606 kts 61°
2026-04-24 19:56 41.45435 168.41875 32617 ft 608 kts 62°
2026-04-24 19:57 41.49065 168.52122 32618 ft 609 kts 61°
2026-04-24 19:57 41.52114 168.60756 32622 ft 607 kts 63°
2026-04-24 19:58 41.55714 168.70990 32607 ft 608 kts 63°
2026-04-24 19:58 41.59993 168.83197 32611 ft 607 kts 63°
2026-04-24 19:59 41.63681 168.93762 32619 ft 607 kts 63°
2026-04-24 19:59 41.67371 169.04375 32643 ft 605 kts 63°
2026-04-24 20:00 41.71029 169.14929 32650 ft 609 kts 63°
2026-04-24 20:00 41.74568 169.25185 32651 ft 603 kts 64°
2026-04-24 20:01 41.78059 169.35333 32662 ft 609 kts 64°
2026-04-24 20:01 41.81769 169.46161 32663 ft 605 kts 64°
2026-04-24 20:02 41.84722 169.54813 32686 ft 607 kts 63°
2026-04-24 20:02 41.88869 169.67007 32671 ft 605 kts 64°
2026-04-24 20:03 41.92422 169.77496 32647 ft 603 kts 65°
2026-04-24 20:03 41.95952 169.87958 32678 ft 605 kts 64°
2026-04-24 20:04 41.98803 169.96437 32679 ft 605 kts 64°
2026-04-24 20:04 42.03006 170.08516 32684 ft 604 kts 62°
2026-04-24 20:05 42.06708 170.18780 32692 ft 603 kts 63°
2026-04-24 20:05 42.10508 170.29378 32688 ft 603 kts 62°
2026-04-24 20:06 42.14143 170.39571 32707 ft 599 kts 62°
2026-04-24 20:06 42.17189 170.48145 32714 ft 601 kts 62°
2026-04-24 20:07 42.20235 170.56753 32713 ft 597 kts 62°
2026-04-24 20:07 42.25073 170.70480 32698 ft 599 kts 63°
2026-04-24 20:08 42.28704 170.80832 32723 ft 599 kts 63°
2026-04-24 20:08 42.32257 170.91000 32720 ft 598 kts 63°
2026-04-24 20:09 42.35967 171.01659 32752 ft 598 kts 63°
2026-04-24 20:09 42.39671 171.12340 32755 ft 599 kts 63°
2026-04-24 20:10 42.42708 171.21129 32745 ft 597 kts 63°
2026-04-24 20:10 42.46849 171.33165 32756 ft 593 kts 62°
2026-04-24 20:11 42.50343 171.43352 32765 ft 593 kts 63°
2026-04-24 20:11 42.53758 171.53348 32768 ft 597 kts 63°
2026-04-24 20:12 42.56690 171.61963 32780 ft 595 kts 62°
2026-04-24 20:12 42.60014 171.71758 32764 ft 595 kts 63°
2026-04-24 20:13 42.63497 171.82063 32766 ft 594 kts 63°
2026-04-24 20:13 42.67605 171.94266 32777 ft 595 kts 63°
2026-04-24 20:14 42.70922 172.04160 32785 ft 591 kts 63°
2026-04-24 20:14 42.73842 172.12898 32784 ft 592 kts 63°
2026-04-24 20:15 42.77902 172.25095 32797 ft 593 kts 63°
2026-04-24 20:15 42.81435 172.35754 32826 ft 594 kts 64°
2026-04-24 20:16 42.84297 172.44423 32816 ft 589 kts 63°
2026-04-24 20:16 42.88291 172.56561 32828 ft 588 kts 64°
2026-04-24 20:17 42.91405 172.66064 32846 ft 591 kts 64°
2026-04-24 20:17 42.96175 172.80687 32833 ft 588 kts 65°
2026-04-24 20:18 42.99345 172.90448 32851 ft 587 kts 65°
2026-04-24 20:18 43.02514 173.00246 32844 ft 586 kts 65°
2026-04-24 20:19 43.05325 173.08963 32846 ft 588 kts 63°
2026-04-24 20:19 43.09169 173.20932 32845 ft 584 kts 64°
2026-04-24 20:20 43.12234 173.30513 32839 ft 588 kts 64°
2026-04-24 20:20 43.15237 173.39937 32851 ft 587 kts 64°
2026-04-24 20:21 43.18196 173.49252 32863 ft 585 kts 64°
2026-04-24 20:21 43.21148 173.58577 32867 ft 589 kts 64°
2026-04-24 20:22 43.23626 173.66435 32855 ft 589 kts 65°
2026-04-24 20:22 43.26568 173.75794 32861 ft 585 kts 64°
2026-04-24 20:23 43.29959 173.86620 32874 ft 590 kts 64°
2026-04-24 20:23 43.32958 173.96231 32887 ft 587 kts 65°
2026-04-24 20:24 43.36042 174.06151 32890 ft 589 kts 65°
2026-04-24 20:24 43.38516 174.14140 32896 ft 587 kts 65°
2026-04-24 20:25 43.41900 174.25105 32910 ft 589 kts 64°
2026-04-24 20:25 43.44806 174.34554 32904 ft 590 kts 65°
2026-04-24 20:26 43.47203 174.42380 32903 ft 590 kts 65°
2026-04-24 20:26 43.50248 174.52350 32908 ft 587 kts 64°
2026-04-24 20:27 43.53876 174.64281 32917 ft 591 kts 65°
2026-04-24 20:27 43.56985 174.74550 32909 ft 590 kts 65°
2026-04-24 20:28 43.59917 174.84268 32907 ft 594 kts 66°
2026-04-24 20:28 43.62895 174.94183 32919 ft 590 kts 65°
2026-04-24 20:29 43.65908 175.04251 32934 ft 594 kts 65°
2026-04-24 20:29 43.68945 175.14439 32941 ft 591 kts 66°
2026-04-24 20:30 43.71878 175.24318 32947 ft 591 kts 65°
2026-04-24 20:30 43.74833 175.34309 32952 ft 593 kts 66°
2026-04-24 20:31 43.77810 175.44417 32968 ft 591 kts 66°
2026-04-24 20:31 43.80834 175.54723 32967 ft 592 kts 66°
2026-04-24 20:32 43.83891 175.65186 32972 ft 592 kts 66°
2026-04-24 20:32 43.86444 175.73953 32950 ft 590 kts 67°
2026-04-24 20:33 43.89965 175.86101 32960 ft 589 kts 66°
2026-04-24 20:33 43.92355 175.94377 32971 ft 591 kts 66°
2026-04-24 20:34 43.95240 176.04407 32970 ft 590 kts 67°
2026-04-24 20:34 43.98709 176.16522 32982 ft 589 kts 66°
2026-04-24 20:35 44.01660 176.26874 32986 ft 588 kts 67°
2026-04-24 20:35 44.04119 176.35533 32988 ft 588 kts 67°
2026-04-24 20:36 44.07046 176.45880 32995 ft 587 kts 67°
2026-04-24 20:36 44.10403 176.57800 32999 ft 589 kts 66°
2026-04-24 20:37 44.12782 176.66283 32992 ft 586 kts 67°
2026-04-24 20:37 44.16121 176.78232 32982 ft 588 kts 67°
2026-04-24 20:38 44.19089 176.88908 32989 ft 590 kts 67°
2026-04-24 20:38 44.21552 176.97806 32991 ft 586 kts 66°
2026-04-24 20:39 44.24466 177.08369 33001 ft 587 kts 66°
2026-04-24 20:39 44.27812 177.20558 33007 ft 588 kts 66°
2026-04-24 20:40 44.30751 177.31316 33016 ft 586 kts 66°
2026-04-24 20:40 44.33173 177.40208 33018 ft 591 kts 67°
2026-04-24 20:41 44.36511 177.52534 33027 ft 586 kts 66°
2026-04-24 20:41 44.39319 177.62946 33036 ft 590 kts 66°
2026-04-24 20:42 44.42094 177.73279 33020 ft 588 kts 66°
2026-04-24 20:42 44.44777 177.83315 33023 ft 589 kts 67°
2026-04-24 20:43 44.47474 177.93446 33029 ft 587 kts 66°
2026-04-24 20:43 44.50135 178.03481 33035 ft 591 kts 67°
2026-04-24 20:44 44.52749 178.13384 33038 ft 588 kts 67°
2026-04-24 20:44 44.55442 178.23627 33048 ft 589 kts 67°
2026-04-24 20:45 44.57791 178.32599 33053 ft 589 kts 66°
2026-04-24 20:45 44.60518 178.43054 33049 ft 589 kts 67°
2026-04-24 20:46 44.63301 178.53775 33058 ft 590 kts 67°
2026-04-24 20:46 44.66471 178.66048 33059 ft 590 kts 68°
2026-04-24 20:47 44.69002 178.75896 33047 ft 594 kts 67°
2026-04-24 20:47 44.71583 178.85977 33056 ft 593 kts 66°
2026-04-24 20:48 44.74217 178.96313 33062 ft 590 kts 66°
2026-04-24 20:48 44.76363 179.04764 33063 ft 594 kts 66°
2026-04-24 20:49 44.79398 179.16774 33067 ft 593 kts 67°
2026-04-24 20:49 44.82100 179.27519 33078 ft 593 kts 66°
2026-04-24 20:50 44.84338 179.36455 33080 ft 595 kts 66°
2026-04-24 20:50 44.87032 179.47261 33088 ft 594 kts 66°
2026-04-24 20:51 44.90091 179.59589 33095 ft 596 kts 67°
2026-04-24 20:51 44.92726 179.70267 33076 ft 595 kts 67°
2026-04-24 20:52 44.94910 179.79155 33080 ft 596 kts 66°
2026-04-24 20:52 44.97935 179.91527 33085 ft 594 kts 66°
2026-04-24 20:53 45.00574 -179.97748 33097 ft 594 kts 66°
2026-04-24 20:53 45.03130 -179.87564 33107 ft 596 kts 66°
2026-04-24 20:54 45.05712 -179.77234 33104 ft 594 kts 65°
2026-04-24 20:54 45.07875 -179.68550 33113 ft 592 kts 65°
2026-04-24 20:55 45.10857 -179.56534 33119 ft 596 kts 66°
2026-04-24 20:55 45.13512 -179.45767 33094 ft 592 kts 66°
2026-04-24 20:56 45.15694 -179.36890 33100 ft 595 kts 66°
2026-04-24 20:56 45.18813 -179.24136 33092 ft 595 kts 66°
2026-04-24 20:57 45.21460 -179.13255 33091 ft 592 kts 66°
2026-04-24 20:57 45.24091 -179.02382 33097 ft 591 kts 67°
2026-04-24 20:58 45.26311 -178.93175 33099 ft 591 kts 66°
2026-04-24 20:58 45.28899 -178.82391 33102 ft 590 kts 66°
2026-04-24 20:59 45.31372 -178.72034 33109 ft 588 kts 66°
2026-04-24 20:59 45.34236 -178.59979 33114 ft 587 kts 66°
2026-04-24 21:00 45.36276 -178.51355 33115 ft 588 kts 65°
2026-04-24 21:00 45.38860 -178.40384 33095 ft 588 kts 67°
2026-04-24 21:01 45.41803 -178.27808 33101 ft 584 kts 66°
2026-04-24 21:01 45.44343 -178.16908 33107 ft 584 kts 67°
2026-04-24 21:02 45.46448 -178.07837 33104 ft 586 kts 66°
2026-04-24 21:02 45.49342 -177.95290 33120 ft 586 kts 67°
2026-04-24 21:03 45.51421 -177.86235 33125 ft 586 kts 67°
2026-04-24 21:03 45.54361 -177.73366 33127 ft 585 kts 66°
2026-04-24 21:04 45.56376 -177.64496 33142 ft 585 kts 66°
2026-04-24 21:04 45.59202 -177.52000 33140 ft 584 kts 66°
2026-04-24 21:05 45.61227 -177.42998 33148 ft 582 kts 66°
2026-04-24 21:05 45.63692 -177.32005 33131 ft 587 kts 67°
2026-04-24 21:06 45.66141 -177.21008 33133 ft 585 kts 67°
2026-04-24 21:06 45.68592 -177.09947 33140 ft 585 kts 67°
2026-04-24 21:07 45.71527 -176.96623 33143 ft 582 kts 66°
2026-04-24 21:07 45.74094 -176.84915 33144 ft 585 kts 66°
2026-04-24 21:08 45.76147 -176.75485 33143 ft 581 kts 67°
2026-04-24 21:08 45.79056 -176.62073 33145 ft 582 kts 66°
2026-04-24 21:09 45.81509 -176.50684 33135 ft 581 kts 66°
2026-04-24 21:09 45.83986 -176.39133 33139 ft 580 kts 67°
2026-04-24 21:10 45.86053 -176.29437 33123 ft 580 kts 67°
2026-04-24 21:10 45.88895 -176.16034 33134 ft 584 kts 66°
2026-04-24 21:11 45.90917 -176.06438 33140 ft 583 kts 67°
2026-04-24 21:11 45.93736 -175.92989 33139 ft 580 kts 66°
2026-04-24 21:12 45.95758 -175.83295 33146 ft 584 kts 67°
2026-04-24 21:12 45.98559 -175.69771 33141 ft 577 kts 66°
2026-04-24 21:13 46.00954 -175.58148 33129 ft 581 kts 67°
2026-04-24 21:13 46.03313 -175.46619 33143 ft 577 kts 66°
2026-04-24 21:14 46.05673 -175.35037 33146 ft 580 kts 67°
2026-04-24 21:14 46.08031 -175.23377 33117 ft 577 kts 68°
2026-04-24 21:15 46.10383 -175.11702 33145 ft 581 kts 68°
2026-04-24 21:15 46.12691 -175.00157 33140 ft 580 kts 68°
2026-04-24 21:16 46.15006 -174.88513 33139 ft 579 kts 68°
2026-04-24 21:16 46.17303 -174.76892 33134 ft 583 kts 68°
2026-04-24 21:17 46.19598 -174.65210 33149 ft 578 kts 68°
2026-04-24 21:17 46.21514 -174.55403 33147 ft 579 kts 68°
2026-04-24 21:18 46.23801 -174.43636 33150 ft 580 kts 67°
2026-04-24 21:18 46.26435 -174.29991 33129 ft 580 kts 68°
2026-04-24 21:19 46.28650 -174.18440 33132 ft 580 kts 68°
2026-04-24 21:19 46.30844 -174.06931 33131 ft 580 kts 68°
2026-04-24 21:20 46.34029 -173.90088 33132 ft 579 kts 68°
2026-04-24 21:21 46.36144 -173.78822 33131 ft 579 kts 68°
2026-04-24 21:21 46.38244 -173.67577 33123 ft 582 kts 68°
2026-04-24 21:22 46.40344 -173.56264 33125 ft 583 kts 68°
2026-04-24 21:22 46.42430 -173.44937 33126 ft 580 kts 68°
2026-04-24 21:23 46.44519 -173.33548 33116 ft 583 kts 69°
2026-04-24 21:23 46.46228 -173.24165 33102 ft 584 kts 69°
2026-04-24 21:24 46.48640 -173.10843 33110 ft 583 kts 69°
2026-04-24 21:24 46.50687 -172.99463 33115 ft 583 kts 69°
2026-04-24 21:25 46.52712 -172.88141 33104 ft 585 kts 69°
2026-04-24 21:25 46.54747 -172.76680 33108 ft 585 kts 68°
2026-04-24 21:26 46.56774 -172.65195 33100 ft 586 kts 69°
2026-04-24 21:26 46.58781 -172.53752 33116 ft 585 kts 69°
2026-04-24 21:27 46.60766 -172.42352 33114 ft 584 kts 69°
2026-04-24 21:27 46.62760 -172.30841 33095 ft 587 kts 69°
2026-04-24 21:28 46.64719 -172.19450 33087 ft 590 kts 70°
2026-04-24 21:28 46.66685 -172.07945 33088 ft 590 kts 70°
2026-04-24 21:29 46.68650 -171.96361 33091 ft 586 kts 69°
2026-04-24 21:29 46.70598 -171.84813 33102 ft 589 kts 69°
2026-04-24 21:30 46.72200 -171.75244 33098 ft 585 kts 69°
2026-04-24 21:30 46.74449 -171.61739 33101 ft 587 kts 69°
2026-04-24 21:31 46.76376 -171.50073 33098 ft 587 kts 69°
2026-04-24 21:31 46.78271 -171.38533 33091 ft 590 kts 69°
2026-04-24 21:32 46.79853 -171.28825 33076 ft 588 kts 70°
2026-04-24 21:32 46.82062 -171.15192 33072 ft 592 kts 70°
2026-04-24 21:33 46.83623 -171.05476 33089 ft 590 kts 69°
2026-04-24 21:33 46.85778 -170.91983 33084 ft 590 kts 70°
2026-04-24 21:34 46.87636 -170.80261 33089 ft 592 kts 70°
2026-04-24 21:34 46.89469 -170.68602 33083 ft 585 kts 69°
2026-04-24 21:35 46.91283 -170.56996 33088 ft 591 kts 70°
2026-04-24 21:35 46.93110 -170.45218 33087 ft 588 kts 70°
2026-04-24 21:36 46.94908 -170.33534 33081 ft 585 kts 70°
2026-04-24 21:36 46.96693 -170.21864 33067 ft 588 kts 70°
2026-04-24 21:37 46.98347 -170.10965 33072 ft 590 kts 70°
2026-04-24 21:37 46.99781 -169.99002 33057 ft 595 kts 79°
2026-04-24 21:38 47.00457 -169.86282 33087 ft 602 kts 80°
2026-04-24 21:38 47.00745 -169.80209 33531 ft 603 kts 81°
2026-04-24 21:38 47.01033 -169.73857 34290 ft 597 kts 82°
2026-04-24 21:38 47.01305 -169.67635 34819 ft 591 kts 81°
2026-04-24 21:39 47.01565 -169.61566 35020 ft 590 kts 82°
2026-04-24 21:39 47.01982 -169.51512 35082 ft 585 kts 82°
2026-04-24 21:40 47.02537 -169.37523 35078 ft 580 kts 82°
2026-04-24 21:40 47.03025 -169.24765 35073 ft 581 kts 82°
2026-04-24 21:41 47.03491 -169.12085 35064 ft 580 kts 82°
2026-04-24 21:41 47.03937 -168.99587 35056 ft 581 kts 82°
2026-04-24 21:42 47.04300 -168.89023 35063 ft 578 kts 82°
2026-04-24 21:42 47.04791 -168.74319 35047 ft 580 kts 82°
2026-04-24 21:43 47.05204 -168.61438 35066 ft 578 kts 82°
2026-04-24 21:43 47.05600 -168.48637 35065 ft 575 kts 82°
2026-04-24 21:44 47.05980 -168.35925 35078 ft 575 kts 82°
2026-04-24 21:44 47.06286 -168.25282 35056 ft 573 kts 83°
2026-04-24 21:45 47.06697 -168.10442 35048 ft 572 kts 83°
2026-04-24 21:45 47.07029 -167.97891 35067 ft 570 kts 83°
2026-04-24 21:46 47.07348 -167.85405 35071 ft 573 kts 83°
2026-04-24 21:46 47.07655 -167.72760 35041 ft 570 kts 83°
2026-04-24 21:47 47.07946 -167.60190 35056 ft 566 kts 83°
2026-04-24 21:47 47.08179 -167.49687 35063 ft 568 kts 83°
2026-04-24 21:48 47.08445 -167.37172 35090 ft 565 kts 83°
2026-04-24 21:48 47.08697 -167.24681 35048 ft 568 kts 84°
2026-04-24 21:49 47.08968 -167.10359 35209 ft 566 kts 85°
2026-04-24 21:49 47.09078 -167.04251 35003 ft 564 kts 84°
2026-04-24 21:49 47.09185 -166.98096 35204 ft 564 kts 85°
2026-04-24 21:50 47.09388 -166.85933 35168 ft 562 kts 84°
2026-04-24 21:50 47.09578 -166.73824 35079 ft 559 kts 85°
2026-04-24 21:51 47.09758 -166.61531 35084 ft 561 kts 85°
2026-04-24 21:51 47.09924 -166.49255 35090 ft 559 kts 85°
2026-04-24 21:52 47.10076 -166.37054 35100 ft 558 kts 85°
2026-04-24 21:52 47.10214 -166.25017 35078 ft 557 kts 86°
2026-04-24 21:53 47.10336 -166.13240 35084 ft 558 kts 86°
2026-04-24 21:53 47.10444 -166.01584 35081 ft 555 kts 86°
2026-04-24 21:54 47.10540 -165.90129 35090 ft 556 kts 86°
2026-04-24 21:54 47.10625 -165.78481 35092 ft 555 kts 86°
2026-04-24 21:55 47.10698 -165.66998 35095 ft 555 kts 86°
2026-04-24 21:55 47.10751 -165.57426 35100 ft 556 kts 86°
2026-04-24 21:56 47.10810 -165.44032 35102 ft 556 kts 86°
2026-04-24 21:56 47.10848 -165.32359 35086 ft 554 kts 88°
2026-04-24 21:57 47.10875 -165.20821 35091 ft 556 kts 88°
2026-04-24 21:57 47.10890 -165.09412 35091 ft 553 kts 88°
2026-04-24 21:58 47.10894 -164.97905 35082 ft 554 kts 88°
2026-04-24 21:58 47.10886 -164.86534 35077 ft 554 kts 88°
2026-04-24 21:59 47.10867 -164.75041 35072 ft 553 kts 88°
2026-04-24 21:59 47.10837 -164.63737 35073 ft 551 kts 88°
2026-04-24 22:00 47.10795 -164.52399 35075 ft 550 kts 88°
2026-04-24 22:00 47.10743 -164.41159 35077 ft 552 kts 88°
2026-04-24 22:01 47.10680 -164.29886 35069 ft 552 kts 89°
2026-04-24 22:01 47.10606 -164.18677 35068 ft 550 kts 88°
2026-04-24 22:02 47.10521 -164.07449 35067 ft 548 kts 89°
2026-04-24 22:02 47.10425 -163.96227 35076 ft 549 kts 89°
2026-04-24 22:03 47.10337 -163.86911 35078 ft 548 kts 89°
2026-04-24 22:03 47.10202 -163.73921 35090 ft 548 kts 89°
2026-04-24 22:04 47.10072 -163.62611 35089 ft 546 kts 89°
2026-04-24 22:04 47.09933 -163.51425 35092 ft 546 kts 89°
2026-04-24 22:05 47.09784 -163.40299 35106 ft 547 kts 89°
2026-04-24 22:05 47.09624 -163.29161 35097 ft 545 kts 90°
2026-04-24 22:06 47.09482 -163.19865 35101 ft 545 kts 90°
2026-04-24 22:06 47.09302 -163.08731 35107 ft 543 kts 90°
2026-04-24 22:07 47.09078 -162.95744 35105 ft 544 kts 90°
2026-04-24 22:07 47.08876 -162.84685 35116 ft 544 kts 90°
2026-04-24 22:08 47.08663 -162.73599 35118 ft 543 kts 90°
2026-04-24 22:08 47.08439 -162.62537 35123 ft 542 kts 90°
2026-04-24 22:09 47.08203 -162.51353 35132 ft 542 kts 90°
2026-04-24 22:09 47.07998 -162.42073 35130 ft 542 kts 91°
2026-04-24 22:10 47.07744 -162.30975 35120 ft 542 kts 91°
2026-04-24 22:10 47.07433 -162.18043 35129 ft 542 kts 91°
2026-04-24 22:11 47.07156 -162.07004 35133 ft 540 kts 91°
2026-04-24 22:11 47.06871 -161.96046 35133 ft 537 kts 92°
2026-04-24 22:12 47.06576 -161.85077 35140 ft 538 kts 91°
2026-04-24 22:12 47.06319 -161.75856 35151 ft 538 kts 92°
2026-04-24 22:13 47.06006 -161.64961 35157 ft 537 kts 92°
2026-04-24 22:13 47.05623 -161.52084 35159 ft 536 kts 92°
2026-04-24 22:14 47.05280 -161.40965 35167 ft 537 kts 92°
2026-04-24 22:14 47.04988 -161.31737 35165 ft 536 kts 92°
2026-04-24 22:15 47.04559 -161.18616 35165 ft 534 kts 93°
2026-04-24 22:15 47.04185 -161.07523 35170 ft 535 kts 93°
2026-04-24 22:16 47.03798 -160.96368 35185 ft 534 kts 93°
2026-04-24 22:16 47.03405 -160.85364 35185 ft 533 kts 93°
2026-04-24 22:17 47.03000 -160.74303 35186 ft 532 kts 93°
2026-04-24 22:17 47.02589 -160.63368 35195 ft 533 kts 93°
2026-04-24 22:18 47.02168 -160.52460 35206 ft 533 kts 93°
2026-04-24 22:18 47.01808 -160.43332 35196 ft 532 kts 93°
2026-04-24 22:19 47.01291 -160.30518 35188 ft 530 kts 94°
2026-04-24 22:19 47.00917 -160.21489 35199 ft 531 kts 94°
2026-04-24 22:20 47.00374 -160.08646 35198 ft 530 kts 94°
2026-04-24 22:20 46.99862 -159.97729 35196 ft 528 kts 95°
2026-04-24 22:21 46.99256 -159.86743 35205 ft 529 kts 95°
2026-04-24 22:21 46.98639 -159.75809 35209 ft 527 kts 95°
2026-04-24 22:22 46.98011 -159.64887 35222 ft 527 kts 95°
2026-04-24 22:22 46.97379 -159.54086 35222 ft 528 kts 95°
2026-04-24 22:23 46.96733 -159.43230 35224 ft 525 kts 96°
2026-04-24 22:23 46.96063 -159.32153 35226 ft 525 kts 96°
2026-04-24 22:24 46.95379 -159.21039 35228 ft 526 kts 96°
2026-04-24 22:24 46.94691 -159.10033 35238 ft 526 kts 96°
2026-04-24 22:25 46.93980 -158.98827 35243 ft 526 kts 96°
2026-04-24 22:25 46.93265 -158.87749 35248 ft 525 kts 96°
2026-04-24 22:26 46.92671 -158.78650 35252 ft 524 kts 96°
2026-04-24 22:26 46.91827 -158.65922 35252 ft 523 kts 97°
2026-04-24 22:27 46.91223 -158.56950 35271 ft 523 kts 96°
2026-04-24 22:27 46.90362 -158.44344 35278 ft 523 kts 96°
2026-04-24 22:28 46.89611 -158.33499 35273 ft 523 kts 97°
2026-04-24 22:28 46.88984 -158.24562 35274 ft 522 kts 97°
2026-04-24 22:29 46.87719 -158.06828 35287 ft 522 kts 97°
2026-04-24 22:29 46.86943 -157.96153 35275 ft 521 kts 97°
2026-04-24 22:30 46.86150 -157.85367 35297 ft 522 kts 97°
2026-04-24 22:30 46.85356 -157.74716 35296 ft 520 kts 97°
2026-04-24 22:31 46.84553 -157.64081 35299 ft 519 kts 97°
2026-04-24 22:31 46.83742 -157.53471 35297 ft 522 kts 97°
2026-04-24 22:32 46.82917 -157.42816 35304 ft 521 kts 97°
2026-04-24 22:32 46.82075 -157.32068 35284 ft 520 kts 98°
2026-04-24 22:33 46.81235 -157.21474 35283 ft 520 kts 98°
2026-04-24 22:33 46.80387 -157.10899 35294 ft 520 kts 98°
2026-04-24 22:34 46.79521 -157.00230 35293 ft 521 kts 98°
2026-04-24 22:34 46.78623 -156.89304 35286 ft 520 kts 98°
2026-04-24 22:35 46.77725 -156.78500 35298 ft 520 kts 98°
2026-04-24 22:35 46.76803 -156.67540 35288 ft 519 kts 98°
2026-04-24 22:36 46.75882 -156.56717 35297 ft 520 kts 98°
2026-04-24 22:36 46.74946 -156.45833 35295 ft 519 kts 98°
2026-04-24 22:37 46.73986 -156.34804 35295 ft 520 kts 99°
2026-04-24 22:37 46.73201 -156.25874 35284 ft 519 kts 99°
2026-04-24 22:38 46.72093 -156.13417 35292 ft 519 kts 99°
2026-04-24 22:38 46.71144 -156.02869 35288 ft 519 kts 99°
2026-04-24 22:39 46.70180 -155.92255 35278 ft 519 kts 99°
2026-04-24 22:39 46.69185 -155.81419 35290 ft 518 kts 99°
2026-04-24 22:40 46.68169 -155.70482 35290 ft 519 kts 99°
2026-04-24 22:40 46.67142 -155.59538 35304 ft 520 kts 99°
2026-04-24 22:41 46.66104 -155.48585 35298 ft 519 kts 99°
2026-04-24 22:41 46.65226 -155.39412 35298 ft 517 kts 99°
2026-04-24 22:42 46.63991 -155.26645 35287 ft 517 kts 100°
2026-04-24 22:42 46.62916 -155.15655 35289 ft 518 kts 100°
2026-04-24 22:43 46.61833 -155.04697 35293 ft 518 kts 100°
2026-04-24 22:43 46.60927 -154.95613 35291 ft 520 kts 100°
2026-04-24 22:44 46.59618 -154.82608 35294 ft 518 kts 100°
2026-04-24 22:44 46.58506 -154.71684 35291 ft 519 kts 100°
2026-04-24 22:45 46.57365 -154.60591 35298 ft 519 kts 100°
2026-04-24 22:45 46.56416 -154.51440 35297 ft 519 kts 100°
2026-04-24 22:46 46.55262 -154.40416 35297 ft 517 kts 99°
2026-04-24 22:46 46.53902 -154.27544 35288 ft 517 kts 100°
2026-04-24 22:47 46.52730 -154.16576 35291 ft 518 kts 101°
2026-04-24 22:47 46.51745 -154.07426 35295 ft 518 kts 101°
2026-04-24 22:48 46.50355 -153.94653 35294 ft 517 kts 100°
2026-04-24 22:48 46.49125 -153.83452 35304 ft 517 kts 100°
2026-04-24 22:49 46.47914 -153.72522 35298 ft 515 kts 100°
2026-04-24 22:49 46.46692 -153.61604 35296 ft 517 kts 100°
2026-04-24 22:50 46.45472 -153.50787 35298 ft 513 kts 100°
2026-04-24 22:50 46.44246 -153.40019 35293 ft 513 kts 100°
2026-04-24 22:51 46.43015 -153.29303 35283 ft 512 kts 101°
2026-04-24 22:51 46.41777 -153.18614 35286 ft 514 kts 101°
2026-04-24 22:52 46.40522 -153.07867 35282 ft 512 kts 101°
2026-04-24 22:52 46.39253 -152.97092 35282 ft 510 kts 101°
2026-04-24 22:53 46.37999 -152.86537 35284 ft 511 kts 101°
2026-04-24 22:53 46.36759 -152.76180 35285 ft 510 kts 101°
2026-04-24 22:54 46.35486 -152.65628 35287 ft 507 kts 101°
2026-04-24 22:54 46.34210 -152.55147 35287 ft 508 kts 101°
2026-04-24 22:55 46.32934 -152.44745 35288 ft 506 kts 101°
2026-04-24 22:55 46.31656 -152.34404 35289 ft 505 kts 102°
2026-04-24 22:56 46.30381 -152.24168 35329 ft 507 kts 102°
2026-04-24 22:56 46.29951 -152.20740 35201 ft 505 kts 102°
2026-04-24 22:56 46.29089 -152.13873 35275 ft 503 kts 102°
2026-04-24 22:57 46.27805 -152.03720 35283 ft 503 kts 102°
2026-04-24 22:57 46.26519 -151.93636 35279 ft 501 kts 102°
2026-04-24 22:58 46.25183 -151.83221 35272 ft 499 kts 102°
2026-04-24 22:58 46.23850 -151.72919 35273 ft 499 kts 102°
2026-04-24 22:59 46.22507 -151.62607 35278 ft 498 kts 102°
2026-04-24 23:00 46.20477 -151.47172 35282 ft 499 kts 102°
2026-04-24 23:00 46.19155 -151.37209 35287 ft 495 kts 102°
2026-04-24 23:01 46.17784 -151.26953 35265 ft 495 kts 103°
2026-04-24 23:01 46.16409 -151.16728 35263 ft 495 kts 103°
2026-04-24 23:02 46.15000 -151.06340 35266 ft 492 kts 103°
2026-04-24 23:02 46.13590 -150.96014 35259 ft 492 kts 103°
2026-04-24 23:03 46.12202 -150.85918 35256 ft 494 kts 103°
2026-04-24 23:03 46.10813 -150.75884 35259 ft 495 kts 103°
2026-04-24 23:04 46.09693 -150.67844 35261 ft 493 kts 103°
2026-04-24 23:04 46.08302 -150.57915 35261 ft 492 kts 103°
2026-04-24 23:05 46.06706 -150.46608 35263 ft 493 kts 103°
2026-04-24 23:05 46.05336 -150.36971 35260 ft 491 kts 103°
2026-04-24 23:06 46.03957 -150.27331 35256 ft 492 kts 104°
2026-04-24 23:06 46.02801 -150.19295 35258 ft 493 kts 104°
2026-04-24 23:07 46.01170 -150.08028 35254 ft 492 kts 104°
2026-04-24 23:07 45.99511 -149.98598 35262 ft 489 kts 110°
2026-04-24 23:08 45.97344 -149.89384 35260 ft 487 kts 111°
2026-04-24 23:08 45.95145 -149.80238 35267 ft 488 kts 111°
2026-04-24 23:09 45.92903 -149.71017 35268 ft 486 kts 111°
2026-04-24 23:09 45.91803 -149.66522 35154 ft 488 kts 112°
2026-04-24 23:09 45.90677 -149.61935 35251 ft 487 kts 112°
2026-04-24 23:10 45.88439 -149.52863 35282 ft 487 kts 112°
2026-04-24 23:10 45.86190 -149.43788 35298 ft 487 kts 112°
2026-04-24 23:11 45.83933 -149.34720 35305 ft 484 kts 112°
2026-04-24 23:11 45.81669 -149.25668 35303 ft 483 kts 112°
2026-04-24 23:12 45.79403 -149.16643 35304 ft 481 kts 112°
2026-04-24 23:12 45.77133 -149.07640 35302 ft 481 kts 112°
2026-04-24 23:13 45.74842 -148.98589 35307 ft 481 kts 113°
2026-04-24 23:13 45.72542 -148.89540 35321 ft 481 kts 112°
2026-04-24 23:14 45.70236 -148.80504 35321 ft 482 kts 113°
2026-04-24 23:14 45.67913 -148.71433 35320 ft 480 kts 113°
2026-04-24 23:15 45.65607 -148.62463 35327 ft 479 kts 113°
2026-04-24 23:15 45.63312 -148.53575 35319 ft 479 kts 113°
2026-04-24 23:16 45.61025 -148.44745 35322 ft 477 kts 113°
2026-04-24 23:16 45.58760 -148.36038 35327 ft 478 kts 113°
2026-04-24 23:17 45.56537 -148.27522 35322 ft 476 kts 114°
2026-04-24 23:17 45.54681 -148.20436 35333 ft 477 kts 114°
2026-04-24 23:18 45.52021 -148.10316 35339 ft 477 kts 114°
2026-04-24 23:18 45.50204 -148.03433 35335 ft 476 kts 114°
2026-04-24 23:19 45.47656 -147.93808 35344 ft 475 kts 114°
2026-04-24 23:19 45.45483 -147.85632 35341 ft 473 kts 114°
2026-04-24 23:20 45.43272 -147.77341 35350 ft 475 kts 114°
2026-04-24 23:20 45.41068 -147.69104 35349 ft 473 kts 114°
2026-04-24 23:21 45.39231 -147.62260 35345 ft 471 kts 114°
2026-04-24 23:21 45.36721 -147.52946 35352 ft 472 kts 114°
2026-04-24 23:22 45.34525 -147.44820 35357 ft 469 kts 114°
2026-04-24 23:22 45.32318 -147.36687 35355 ft 472 kts 114°
2026-04-24 23:23 45.30500 -147.30006 35354 ft 470 kts 115°
2026-04-24 23:23 45.27899 -147.20479 35359 ft 466 kts 115°
2026-04-24 23:24 45.25929 -147.13290 35361 ft 467 kts 115°
2026-04-24 23:24 45.23159 -147.03215 35368 ft 465 kts 115°
2026-04-24 23:25 45.20663 -146.94177 35366 ft 466 kts 115°
2026-04-24 23:25 45.18166 -146.85165 35371 ft 465 kts 115°
2026-04-24 23:26 45.15663 -146.76163 35371 ft 465 kts 115°
2026-04-24 23:26 45.13149 -146.67158 35382 ft 465 kts 115°
2026-04-24 23:27 45.11066 -146.59721 35392 ft 464 kts 115°
2026-04-24 23:27 45.08103 -146.49182 35394 ft 465 kts 115°
2026-04-24 23:28 45.05637 -146.40443 35397 ft 464 kts 115°
2026-04-24 23:28 45.03155 -146.31680 35386 ft 463 kts 116°
2026-04-24 23:29 45.00607 -146.22719 35392 ft 465 kts 116°
2026-04-24 23:29 44.98154 -146.14121 35408 ft 464 kts 116°
2026-04-24 23:30 44.95593 -146.05176 35405 ft 461 kts 116°
2026-04-24 23:30 44.93487 -145.97844 35401 ft 461 kts 116°
2026-04-24 23:31 44.90493 -145.87459 35402 ft 463 kts 115°
2026-04-24 23:31 44.87912 -145.78537 35411 ft 463 kts 115°
2026-04-24 23:32 44.85336 -145.69669 35411 ft 463 kts 115°
2026-04-24 23:32 44.82762 -145.60837 35412 ft 463 kts 115°
2026-04-24 23:33 44.80170 -145.51978 35417 ft 463 kts 115°
2026-04-24 23:33 44.77600 -145.43221 35418 ft 463 kts 115°
2026-04-24 23:34 44.75452 -145.35927 35417 ft 463 kts 115°
2026-04-24 23:34 44.72419 -145.25661 35416 ft 463 kts 116°
2026-04-24 23:35 44.69803 -145.16843 35415 ft 462 kts 116°
2026-04-24 23:35 44.67172 -145.08005 35421 ft 461 kts 116°
2026-04-24 23:36 44.64978 -145.00656 35427 ft 461 kts 116°
2026-04-24 23:36 44.62474 -144.92297 35426 ft 462 kts 116°
2026-04-24 23:37 44.60039 -144.84196 35426 ft 463 kts 115°
2026-04-24 23:37 44.56588 -144.72754 35431 ft 464 kts 115°
2026-04-24 23:38 44.53886 -144.63832 35435 ft 465 kts 115°
2026-04-24 23:38 44.51401 -144.55656 35433 ft 464 kts 115°
2026-04-24 23:39 44.49014 -144.47827 35432 ft 465 kts 115°
2026-04-24 23:39 44.46685 -144.40212 35442 ft 466 kts 115°
2026-04-24 23:40 44.44739 -144.33862 35442 ft 467 kts 116°
2026-04-24 23:40 44.42374 -144.26169 35439 ft 467 kts 116°
2026-04-24 23:41 44.39574 -144.17091 35433 ft 467 kts 116°
2026-04-24 23:41 44.37186 -144.09376 35431 ft 467 kts 116°
2026-04-24 23:42 44.34793 -144.01666 35431 ft 466 kts 116°
2026-04-24 23:42 44.32173 -143.93251 35423 ft 467 kts 115°
2026-04-24 23:43 44.29589 -143.84976 35423 ft 468 kts 115°
2026-04-24 23:43 44.27013 -143.76756 35429 ft 470 kts 115°
2026-04-24 23:44 44.24853 -143.69884 35427 ft 469 kts 115°
2026-04-24 23:44 44.21730 -143.59978 35429 ft 471 kts 115°
2026-04-24 23:45 44.18938 -143.51154 35435 ft 471 kts 115°
2026-04-24 23:45 44.16158 -143.42398 35439 ft 472 kts 115°
2026-04-24 23:46 44.13348 -143.33575 35441 ft 472 kts 115°
2026-04-24 23:46 44.10501 -143.24667 35446 ft 473 kts 115°
2026-04-24 23:47 44.07630 -143.15718 35449 ft 473 kts 115°
2026-04-24 23:47 44.04781 -143.06860 35443 ft 472 kts 115°
2026-04-24 23:48 44.01927 -142.98024 35432 ft 472 kts 115°
2026-04-24 23:48 43.99025 -142.89064 35442 ft 474 kts 115°
2026-04-24 23:49 43.96102 -142.80075 35440 ft 475 kts 115°
2026-04-24 23:49 43.93668 -142.72607 35439 ft 476 kts 115°
2026-04-24 23:50 43.90246 -142.62151 35429 ft 477 kts 115°
2026-04-24 23:50 43.87287 -142.53140 35437 ft 479 kts 115°
2026-04-24 23:51 43.84790 -142.45560 35431 ft 480 kts 115°
2026-04-24 23:51 43.81286 -142.34958 35428 ft 482 kts 115°
2026-04-24 23:52 43.78286 -142.25914 35428 ft 482 kts 115°
2026-04-24 23:52 43.75259 -142.16820 35425 ft 483 kts 115°
2026-04-24 23:53 43.72241 -142.07785 35423 ft 483 kts 115°
2026-04-24 23:53 43.69735 -142.00304 35422 ft 483 kts 115°
2026-04-24 23:54 43.66263 -141.89977 35427 ft 485 kts 115°
2026-04-24 23:54 43.63251 -141.81049 35427 ft 486 kts 114°
2026-04-24 23:55 43.60256 -141.72198 35428 ft 486 kts 114°
2026-04-24 23:55 43.57303 -141.63501 35427 ft 487 kts 114°
2026-04-24 23:56 43.54339 -141.54800 35428 ft 489 kts 114°
2026-04-24 23:56 43.51891 -141.47636 35427 ft 487 kts 114°
2026-04-24 23:57 43.48432 -141.37544 35427 ft 487 kts 114°
2026-04-24 23:57 43.45437 -141.28836 35424 ft 488 kts 114°
2026-04-24 23:58 43.42900 -141.21481 35425 ft 488 kts 114°
2026-04-24 23:58 43.39369 -141.11278 35424 ft 489 kts 114°
2026-04-24 23:59 43.36257 -141.02315 35425 ft 488 kts 114°
2026-04-24 23:59 43.33123 -140.93321 35428 ft 488 kts 113°
2026-04-25 00:00 43.30434 -140.85625 35430 ft 487 kts 113°
2026-04-25 00:00 43.27189 -140.76369 35433 ft 489 kts 113°
2026-04-25 00:01 43.23951 -140.67162 35430 ft 492 kts 113°
2026-04-25 00:01 43.20121 -140.56311 35429 ft 491 kts 113°
2026-04-25 00:02 43.16815 -140.46979 35431 ft 493 kts 113°
2026-04-25 00:02 43.14041 -140.39175 35435 ft 493 kts 113°
2026-04-25 00:03 43.10139 -140.28233 35434 ft 494 kts 113°
2026-04-25 00:03 43.06749 -140.18761 35434 ft 495 kts 113°
2026-04-25 00:04 43.03937 -140.10928 35432 ft 496 kts 113°
2026-04-25 00:04 42.99960 -139.99889 35433 ft 496 kts 113°
2026-04-25 00:05 42.97672 -139.91693 35434 ft 491 kts 103°
2026-04-25 00:05 42.94954 -139.79964 35429 ft 491 kts 104°
2026-04-25 00:06 42.92973 -139.71692 35429 ft 490 kts 104°
2026-04-25 00:06 42.90134 -139.60068 35424 ft 489 kts 104°
2026-04-25 00:07 42.87688 -139.50172 35415 ft 489 kts 104°
2026-04-25 00:07 42.85242 -139.40353 35406 ft 487 kts 104°
2026-04-25 00:08 42.83199 -139.32198 35407 ft 488 kts 105°
2026-04-25 00:08 42.80723 -139.22359 35405 ft 488 kts 105°
2026-04-25 00:09 42.78246 -139.12563 35403 ft 488 kts 105°
2026-04-25 00:09 42.75339 -139.01119 35402 ft 487 kts 105°
2026-04-25 00:10 42.73233 -138.92865 35410 ft 486 kts 105°
2026-04-25 00:10 42.70318 -138.81485 35400 ft 483 kts 105°
2026-04-25 00:11 42.68224 -138.73347 35396 ft 483 kts 105°
2026-04-25 00:11 42.65276 -138.61931 35404 ft 483 kts 106°
2026-04-25 00:12 42.62727 -138.52112 35388 ft 478 kts 106°
2026-04-25 00:12 42.60200 -138.42409 35399 ft 480 kts 106°
2026-04-25 00:13 42.57686 -138.32802 35386 ft 476 kts 107°
2026-04-25 00:13 42.55141 -138.23111 35382 ft 476 kts 108°
2026-04-25 00:14 42.53042 -138.15146 35382 ft 474 kts 108°
2026-04-25 00:14 42.50151 -138.04225 35359 ft 473 kts 108°
2026-04-25 00:15 42.47658 -137.94841 35357 ft 472 kts 108°
2026-04-25 00:15 42.45142 -137.85411 35354 ft 471 kts 108°
2026-04-25 00:16 42.42612 -137.75964 35352 ft 468 kts 108°
2026-04-25 00:16 42.40058 -137.66467 35344 ft 466 kts 108°
2026-04-25 00:17 42.37941 -137.58621 35346 ft 464 kts 108°
2026-04-25 00:17 42.34983 -137.47699 35339 ft 465 kts 108°
2026-04-25 00:18 42.32445 -137.38364 35341 ft 459 kts 108°
2026-04-25 00:18 42.30360 -137.30724 35331 ft 457 kts 109°
2026-04-25 00:19 42.27414 -137.19968 35348 ft 458 kts 110°
2026-04-25 00:19 42.25319 -137.12346 35356 ft 458 kts 110°
2026-04-25 00:20 42.22811 -137.03258 35347 ft 460 kts 110°
2026-04-25 00:20 42.19872 -136.92645 35345 ft 461 kts 110°
2026-04-25 00:21 42.17339 -136.83536 35346 ft 457 kts 110°
2026-04-25 00:21 42.14804 -136.74451 35343 ft 456 kts 110°
2026-04-25 00:22 42.12251 -136.65338 35342 ft 457 kts 110°
2026-04-25 00:22 42.09730 -136.56367 35332 ft 456 kts 110°
2026-04-25 00:23 42.07164 -136.47272 35328 ft 454 kts 110°
2026-04-25 00:23 42.04614 -136.38266 35325 ft 454 kts 110°
2026-04-25 00:24 42.02063 -136.29285 35314 ft 452 kts 111°
2026-04-25 00:24 41.99516 -136.20355 35308 ft 452 kts 110°
2026-04-25 00:25 41.97378 -136.12880 35308 ft 452 kts 111°
2026-04-25 00:25 41.94418 -136.02568 35298 ft 452 kts 111°
2026-04-25 00:26 41.92311 -135.95252 35301 ft 450 kts 111°
2026-04-25 00:26 41.89327 -135.84929 35300 ft 451 kts 111°
2026-04-25 00:27 41.86756 -135.76065 35292 ft 449 kts 111°
2026-04-25 00:27 41.84163 -135.67160 35287 ft 450 kts 111°
2026-04-25 00:28 41.81581 -135.58321 35295 ft 450 kts 111°
2026-04-25 00:28 41.78976 -135.49432 35288 ft 450 kts 110°
2026-04-25 00:29 41.76805 -135.42053 35281 ft 450 kts 111°
2026-04-25 00:29 41.74205 -135.33237 35283 ft 451 kts 111°
2026-04-25 00:30 41.71186 -135.23041 35280 ft 450 kts 111°
2026-04-25 00:30 41.68580 -135.14270 35278 ft 449 kts 111°
2026-04-25 00:31 41.65975 -135.05533 35278 ft 450 kts 111°
2026-04-25 00:31 41.63343 -134.96738 35261 ft 451 kts 111°
2026-04-25 00:32 41.61144 -134.89409 35260 ft 450 kts 111°
2026-04-25 00:32 41.58493 -134.80598 35258 ft 451 kts 111°
2026-04-25 00:33 41.55376 -134.70282 35252 ft 451 kts 111°
2026-04-25 00:33 41.52704 -134.61470 35243 ft 451 kts 111°
2026-04-25 00:34 41.50016 -134.52632 35249 ft 451 kts 111°
2026-04-25 00:34 41.47317 -134.43790 35246 ft 451 kts 111°
2026-04-25 00:35 41.44624 -134.34996 35249 ft 451 kts 112°
2026-04-25 00:35 41.41918 -134.26190 35253 ft 451 kts 112°
2026-04-25 00:36 41.39225 -134.17456 35247 ft 452 kts 112°
2026-04-25 00:36 41.36510 -134.08679 35254 ft 451 kts 112°
2026-04-25 00:37 41.33830 -134.00043 35238 ft 452 kts 112°
2026-04-25 00:37 41.31103 -133.91283 35242 ft 451 kts 112°
2026-04-25 00:38 41.28400 -133.82626 35225 ft 452 kts 112°
2026-04-25 00:38 41.26144 -133.75427 35221 ft 451 kts 112°
2026-04-25 00:39 41.23421 -133.66759 35221 ft 453 kts 112°
2026-04-25 00:39 41.20202 -133.56549 35211 ft 452 kts 112°
2026-04-25 00:40 41.17441 -133.47821 35207 ft 452 kts 112°
2026-04-25 00:40 41.14659 -133.39058 35201 ft 452 kts 112°
2026-04-25 00:41 41.11899 -133.30389 35205 ft 451 kts 113°
2026-04-25 00:41 41.09101 -133.21631 35204 ft 452 kts 113°
2026-04-25 00:42 41.06321 -133.12956 35204 ft 452 kts 113°
2026-04-25 00:42 41.04037 -133.05853 35197 ft 450 kts 113°
2026-04-25 00:43 41.00807 -132.95833 35204 ft 451 kts 113°
2026-04-25 00:43 40.98044 -132.87294 35213 ft 451 kts 113°
2026-04-25 00:44 40.95727 -132.80151 35202 ft 451 kts 113°
2026-04-25 00:44 40.92473 -132.70154 35181 ft 451 kts 113°
2026-04-25 00:45 40.89691 -132.61636 35178 ft 450 kts 113°
2026-04-25 00:45 40.87338 -132.54450 35182 ft 451 kts 114°
2026-04-25 00:46 40.84050 -132.44443 35189 ft 452 kts 113°
2026-04-25 00:47 40.79801 -132.31560 35178 ft 450 kts 114°
2026-04-25 00:47 40.77432 -132.24405 35181 ft 451 kts 114°
2026-04-25 00:48 40.74167 -132.14574 35174 ft 452 kts 114°
2026-04-25 00:48 40.71337 -132.06079 35182 ft 452 kts 114°
2026-04-25 00:49 40.68508 -131.97615 35175 ft 452 kts 114°
2026-04-25 00:49 40.65649 -131.89085 35163 ft 452 kts 114°
2026-04-25 00:50 40.62794 -131.80594 35168 ft 455 kts 114°
2026-04-25 00:50 40.59911 -131.72046 35157 ft 455 kts 114°
2026-04-25 00:51 40.57001 -131.63444 35146 ft 455 kts 113°
2026-04-25 00:51 40.54139 -131.55009 35139 ft 455 kts 113°
2026-04-25 00:52 40.51236 -131.46480 35146 ft 456 kts 113°
2026-04-25 00:52 40.48320 -131.37938 35154 ft 456 kts 114°
2026-04-25 00:53 40.45433 -131.29509 35152 ft 456 kts 114°
2026-04-25 00:53 40.42535 -131.21068 35152 ft 455 kts 114°
2026-04-25 00:54 40.39624 -131.12619 35153 ft 455 kts 114°
2026-04-25 00:54 40.37179 -131.05539 35157 ft 454 kts 114°
2026-04-25 00:55 40.33787 -130.95747 35142 ft 456 kts 114°
2026-04-25 00:55 40.30859 -130.87323 35134 ft 455 kts 114°
2026-04-25 00:56 40.28393 -130.80244 35132 ft 456 kts 114°
2026-04-25 00:56 40.24949 -130.70393 35130 ft 455 kts 114°
2026-04-25 00:57 40.22512 -130.63441 35127 ft 456 kts 113°
2026-04-25 00:57 40.19095 -130.53720 35120 ft 456 kts 113°
2026-04-25 00:58 40.16151 -130.45373 35121 ft 454 kts 113°
2026-04-25 00:58 40.13908 -130.39027 35121 ft 456 kts 113°
2026-04-25 00:59 40.10649 -130.29835 35298 ft 463 kts 114°
2026-04-25 00:59 40.09273 -130.25963 35786 ft 462 kts 114°
2026-04-25 00:59 40.07886 -130.22064 36280 ft 461 kts 114°
2026-04-25 00:59 40.06974 -130.19504 36552 ft 463 kts 114°
2026-04-25 01:00 40.05041 -130.14084 37018 ft 467 kts 114°
2026-04-25 01:00 40.02103 -130.05867 37103 ft 469 kts 115°
2026-04-25 01:01 39.98706 -129.97604 37100 ft 471 kts 121°
2026-04-25 01:01 39.94818 -129.89499 37090 ft 470 kts 122°
2026-04-25 01:02 39.91620 -129.82907 37106 ft 473 kts 122°
2026-04-25 01:02 39.87712 -129.74899 37101 ft 473 kts 122°
2026-04-25 01:03 39.83091 -129.65480 37097 ft 473 kts 122°
2026-04-25 01:03 39.79076 -129.57329 37096 ft 473 kts 122°
2026-04-25 01:04 39.75114 -129.49309 37098 ft 478 kts 122°
2026-04-25 01:04 39.71081 -129.41168 37106 ft 478 kts 122°
2026-04-25 01:05 39.67113 -129.33179 37100 ft 479 kts 123°
2026-04-25 01:05 39.63048 -129.25017 37104 ft 481 kts 122°
2026-04-25 01:06 39.58993 -129.16896 37094 ft 484 kts 123°
2026-04-25 01:06 39.54992 -129.08902 37092 ft 481 kts 123°
2026-04-25 01:07 39.51597 -129.02135 37082 ft 483 kts 123°
2026-04-25 01:07 39.46868 -128.92734 37076 ft 484 kts 123°
2026-04-25 01:08 39.42812 -128.84692 37063 ft 484 kts 123°
2026-04-25 01:08 39.38749 -128.76660 37070 ft 485 kts 123°
2026-04-25 01:09 39.34608 -128.68491 37062 ft 485 kts 124°
2026-04-25 01:09 39.30500 -128.60410 37071 ft 486 kts 124°
2026-04-25 01:10 39.26364 -128.52292 37077 ft 486 kts 124°
2026-04-25 01:10 39.22225 -128.44189 37081 ft 486 kts 124°
2026-04-25 01:11 39.18093 -128.36122 37082 ft 485 kts 124°
2026-04-25 01:11 39.13969 -128.28090 37077 ft 486 kts 125°
2026-04-25 01:12 39.10523 -128.21394 37075 ft 486 kts 125°
2026-04-25 01:12 39.05690 -128.12025 37078 ft 485 kts 125°
2026-04-25 01:13 39.01526 -128.03976 37060 ft 487 kts 125°
2026-04-25 01:13 38.97326 -127.95879 37056 ft 487 kts 125°
2026-04-25 01:14 38.93783 -127.89064 37056 ft 487 kts 125°
2026-04-25 01:14 38.88866 -127.79630 37056 ft 487 kts 125°
2026-04-25 01:15 38.85331 -127.72862 37058 ft 487 kts 125°
2026-04-25 01:15 38.80447 -127.63539 37059 ft 488 kts 126°
2026-04-25 01:16 38.77084 -127.57133 37060 ft 488 kts 125°
2026-04-25 01:16 38.72379 -127.48193 37064 ft 488 kts 126°
2026-04-25 01:17 38.68204 -127.40280 37066 ft 488 kts 126°
2026-04-25 01:17 38.64010 -127.32351 37051 ft 489 kts 126°
2026-04-25 01:18 38.59833 -127.24474 37045 ft 489 kts 127°
2026-04-25 01:18 38.55651 -127.16606 37040 ft 489 kts 127°
2026-04-25 01:19 38.51485 -127.08788 37036 ft 488 kts 127°
2026-04-25 01:19 38.47280 -127.00914 37035 ft 489 kts 127°
2026-04-25 01:20 38.43103 -126.93112 37033 ft 489 kts 127°
2026-04-25 01:20 38.38945 -126.85366 37039 ft 490 kts 127°
2026-04-25 01:21 38.34776 -126.77615 37030 ft 489 kts 127°
2026-04-25 01:21 38.31271 -126.71113 37034 ft 490 kts 127°
2026-04-25 01:22 38.27082 -126.63362 37045 ft 490 kts 127°
2026-04-25 01:22 38.22850 -126.55547 37045 ft 490 kts 127°
2026-04-25 01:23 38.17915 -126.46459 37040 ft 490 kts 127°
2026-04-25 01:23 38.13706 -126.38728 37037 ft 491 kts 128°
2026-04-25 01:24 38.09552 -126.31114 37029 ft 492 kts 128°
2026-04-25 01:24 38.05429 -126.23575 37017 ft 490 kts 128°
2026-04-25 01:25 38.01973 -126.17269 37023 ft 491 kts 128°
2026-04-25 01:25 37.97354 -126.08862 37022 ft 491 kts 128°
2026-04-25 01:26 37.93517 -126.01892 37017 ft 492 kts 128°
2026-04-25 01:26 37.89418 -125.94463 37014 ft 491 kts 128°
2026-04-25 01:27 37.85258 -125.86942 37024 ft 493 kts 128°
2026-04-25 01:27 37.81562 -125.79114 37029 ft 499 kts 119°
2026-04-25 01:28 37.77200 -125.67670 37028 ft 500 kts 119°
2026-04-25 01:28 37.73890 -125.59061 37020 ft 501 kts 119°
2026-04-25 01:29 37.70038 -125.49101 37028 ft 501 kts 119°
2026-04-25 01:29 37.66738 -125.40612 37029 ft 503 kts 119°
2026-04-25 01:30 37.63441 -125.32155 37005 ft 502 kts 120°
2026-04-25 01:30 37.60129 -125.23689 37000 ft 501 kts 120°
2026-04-25 01:31 37.56833 -125.15288 37006 ft 504 kts 120°
2026-04-25 01:31 37.53494 -125.06800 37003 ft 503 kts 120°
2026-04-25 01:32 37.50158 -124.98342 37001 ft 505 kts 120°
2026-04-25 01:32 37.46778 -124.89799 36999 ft 504 kts 120°
2026-04-25 01:33 37.43414 -124.81318 37002 ft 505 kts 120°
2026-04-25 01:33 37.40022 -124.72788 36998 ft 506 kts 120°
2026-04-25 01:34 37.37183 -124.65668 37001 ft 505 kts 120°
2026-04-25 01:34 37.33217 -124.55748 36995 ft 506 kts 120°
2026-04-25 01:35 37.29778 -124.47173 36990 ft 508 kts 120°
2026-04-25 01:35 37.26369 -124.38693 37000 ft 508 kts 120°
2026-04-25 01:36 37.22945 -124.30197 36989 ft 507 kts 121°
2026-04-25 01:36 37.19483 -124.21635 36987 ft 508 kts 121°
2026-04-25 01:37 37.16017 -124.13084 36989 ft 509 kts 121°
2026-04-25 01:37 37.13117 -124.05945 36991 ft 509 kts 121°
2026-04-25 01:38 37.09671 -123.97486 36992 ft 511 kts 121°
2026-04-25 01:38 37.05563 -123.87430 36989 ft 511 kts 121°
2026-04-25 01:39 37.02013 -123.78766 36988 ft 512 kts 121°
2026-04-25 01:39 36.98446 -123.70081 36987 ft 512 kts 121°
2026-04-25 01:40 36.94879 -123.61421 36988 ft 511 kts 121°
2026-04-25 01:40 36.91435 -123.52769 36991 ft 515 kts 116°
2026-04-25 01:41 36.88374 -123.43767 36990 ft 515 kts 116°
2026-04-25 01:41 36.85315 -123.34840 36991 ft 517 kts 117°
2026-04-25 01:42 36.83268 -123.28913 36974 ft 515 kts 117°
2026-04-25 01:42 36.79109 -123.16943 36974 ft 518 kts 117°
2026-04-25 01:43 36.75966 -123.07951 36980 ft 516 kts 117°
2026-04-25 01:43 36.72836 -122.99026 36964 ft 516 kts 117°
2026-04-25 01:44 36.69737 -122.90224 36966 ft 516 kts 117°
2026-04-25 01:44 36.66558 -122.81223 36968 ft 519 kts 117°
2026-04-25 01:45 36.64032 -122.74086 36967 ft 518 kts 117°
2026-04-25 01:45 36.60472 -122.64062 36961 ft 519 kts 117°
2026-04-25 01:46 36.57383 -122.55390 36969 ft 519 kts 117°
2026-04-25 01:46 36.54775 -122.48089 36968 ft 519 kts 118°
2026-04-25 01:47 36.51061 -122.37720 36975 ft 519 kts 118°
2026-04-25 01:47 36.47922 -122.28983 36954 ft 519 kts 118°
2026-04-25 01:48 36.45367 -122.21890 36958 ft 521 kts 118°
2026-04-25 01:48 36.42319 -122.13451 36956 ft 521 kts 118°
2026-04-25 01:49 36.38569 -122.03098 36953 ft 523 kts 118°
2026-04-25 01:49 36.35269 -121.94016 36959 ft 524 kts 118°
2026-04-25 01:50 36.32558 -121.86576 36951 ft 522 kts 118°
2026-04-25 01:50 36.29306 -121.77673 36945 ft 524 kts 118°
2026-04-25 01:51 36.25499 -121.67282 36942 ft 525 kts 118°
2026-04-25 01:51 36.22375 -121.58783 36933 ft 525 kts 118°
2026-04-25 01:52 36.19720 -121.51579 36928 ft 525 kts 118°
2026-04-25 01:52 36.17163 -121.44653 36931 ft 527 kts 118°
2026-04-25 01:53 36.12841 -121.32988 36907 ft 526 kts 119°
2026-04-25 01:53 36.09638 -121.24367 36909 ft 527 kts 119°
2026-04-25 01:54 36.06425 -121.15744 36913 ft 527 kts 119°
2026-04-25 01:54 36.03705 -121.08463 36894 ft 528 kts 119°
2026-04-25 01:55 36.00370 -120.99556 36887 ft 525 kts 120°
2026-04-25 01:55 35.96706 -120.89806 36891 ft 530 kts 119°
2026-04-25 01:56 35.93518 -120.81344 36896 ft 533 kts 119°
2026-04-25 01:56 35.90324 -120.72887 36904 ft 532 kts 119°
2026-04-25 01:57 35.85424 -120.59957 36920 ft 532 kts 120°
2026-04-25 01:58 35.82179 -120.51424 36916 ft 533 kts 120°
2026-04-25 01:58 35.78938 -120.42924 36918 ft 535 kts 120°
2026-04-25 01:59 35.75691 -120.34429 36904 ft 536 kts 121°
2026-04-25 01:59 35.72424 -120.25906 36888 ft 535 kts 120°
2026-04-25 02:00 35.68980 -120.17328 36887 ft 530 kts 127°
2026-04-25 02:00 35.64309 -120.10317 36877 ft 511 kts 146°
2026-04-25 02:01 35.58901 -120.05452 36889 ft 503 kts 155°
2026-04-25 02:01 35.53093 -120.00851 36900 ft 500 kts 156°
2026-04-25 02:02 35.47587 -119.96590 36908 ft 498 kts 157°
2026-04-25 02:02 35.41367 -119.91848 36909 ft 496 kts 157°
2026-04-25 02:03 35.35160 -119.87159 36907 ft 497 kts 158°
2026-04-25 02:03 35.29091 -119.82561 36912 ft 496 kts 154°
2026-04-25 02:04 35.24297 -119.78180 36473 ft 508 kts 151°
2026-04-25 02:04 35.20341 -119.74468 35591 ft 507 kts 151°
2026-04-25 02:04 35.17417 -119.71726 35016 ft 505 kts 151°
2026-04-25 02:04 35.15449 -119.69884 34629 ft 504 kts 151°
2026-04-25 02:05 35.11543 -119.66234 33767 ft 502 kts 151°
2026-04-25 02:05 35.08597 -119.63489 32940 ft 503 kts 151°
2026-04-25 02:05 35.05710 -119.60801 32135 ft 505 kts 150°
2026-04-25 02:05 35.02700 -119.58004 31297 ft 509 kts 150°
2026-04-25 02:06 34.99686 -119.55209 30468 ft 518 kts 149°
2026-04-25 02:06 34.96668 -119.52409 29647 ft 520 kts 149°
2026-04-25 02:06 34.93602 -119.49564 28807 ft 519 kts 149°
2026-04-25 02:06 34.90629 -119.46812 27998 ft 518 kts 149°
2026-04-25 02:07 34.87593 -119.44078 27183 ft 516 kts 149°
2026-04-25 02:07 34.85573 -119.42272 26694 ft 513 kts 150°
2026-04-25 02:07 34.81505 -119.38638 25985 ft 502 kts 150°
2026-04-25 02:07 34.78467 -119.35923 25573 ft 492 kts 150°
2026-04-25 02:08 34.76508 -119.34174 25302 ft 485 kts 150°
2026-04-25 02:08 34.72721 -119.30811 24615 ft 457 kts 152°
2026-04-25 02:08 34.69944 -119.28385 24289 ft 444 kts 152°
2026-04-25 02:08 34.67178 -119.25977 23852 ft 437 kts 152°
2026-04-25 02:09 34.64471 -119.23622 23425 ft 432 kts 152°
2026-04-25 02:09 34.61773 -119.21298 22919 ft 430 kts 152°
2026-04-25 02:09 34.59082 -119.18986 22373 ft 428 kts 152°
2026-04-25 02:09 34.57284 -119.17439 22010 ft 426 kts 151°
2026-04-25 02:10 34.53705 -119.14317 21268 ft 422 kts 150°
2026-04-25 02:10 34.51066 -119.11975 20719 ft 419 kts 150°
2026-04-25 02:10 34.48494 -119.09695 20092 ft 413 kts 149°
2026-04-25 02:10 34.45919 -119.07415 19638 ft 406 kts 150°
2026-04-25 02:11 34.44253 -119.05943 19302 ft 405 kts 150°
2026-04-25 02:11 34.41762 -119.03770 18779 ft 402 kts 150°
2026-04-25 02:11 34.39216 -119.01567 18135 ft 402 kts 149°
2026-04-25 02:11 34.35934 -118.98730 17232 ft 397 kts 149°
2026-04-25 02:12 34.33506 -118.96623 16569 ft 388 kts 148°
2026-04-25 02:12 34.31164 -118.94498 15910 ft 377 kts 147°
2026-04-25 02:12 34.28949 -118.92481 15358 ft 375 kts 147°
2026-04-25 02:12 34.26709 -118.90446 14710 ft 377 kts 147°
2026-04-25 02:13 34.24561 -118.88493 14090 ft 379 kts 146°
2026-04-25 02:13 34.23857 -118.87846 13885 ft 380 kts 146°
2026-04-25 02:13 34.20815 -118.85043 13031 ft 365 kts 146°
2026-04-25 02:13 34.19357 -118.83698 12954 ft 346 kts 146°
2026-04-25 02:14 34.16023 -118.80628 12975 ft 322 kts 145°
2026-04-25 02:14 34.14252 -118.78737 12962 ft 321 kts 140°
2026-04-25 02:14 34.12561 -118.76834 12954 ft 321 kts 141°
2026-04-25 02:14 34.10775 -118.74858 12768 ft 321 kts 141°
2026-04-25 02:15 34.09617 -118.73590 12487 ft 319 kts 141°
2026-04-25 02:15 34.07282 -118.71050 11761 ft 315 kts 140°
2026-04-25 02:15 34.05584 -118.69206 11203 ft 310 kts 140°
2026-04-25 02:15 34.03973 -118.67333 10641 ft 309 kts 128°
2026-04-25 02:16 34.03244 -118.65757 10426 ft 300 kts 109°
2026-04-25 02:16 34.02686 -118.62743 10457 ft 274 kts 99°
2026-04-25 02:16 34.02423 -118.60452 10421 ft 264 kts 97°
2026-04-25 02:16 34.02181 -118.58035 10002 ft 293 kts 96°
2026-04-25 02:17 34.01939 -118.55497 9484 ft 299 kts 96°
2026-04-25 02:17 34.01778 -118.53785 9127 ft 302 kts 96°
2026-04-25 02:17 34.01453 -118.50326 8428 ft 303 kts 96°
2026-04-25 02:17 34.01208 -118.47727 8021 ft 292 kts 96°
2026-04-25 02:18 34.00686 -118.45367 7859 ft 275 kts 116°
2026-04-25 02:18 33.99755 -118.43324 7812 ft 259 kts 121°
2026-04-25 02:18 33.98818 -118.41489 7688 ft 252 kts 122°
2026-04-25 02:18 33.97887 -118.39700 7561 ft 245 kts 122°
2026-04-25 02:19 33.97255 -118.38490 7416 ft 245 kts 122°
2026-04-25 02:19 33.96338 -118.36738 7064 ft 249 kts 122°
2026-04-25 02:19 33.95112 -118.34400 6579 ft 254 kts 123°
2026-04-25 02:19 33.94133 -118.32534 6153 ft 253 kts 123°
2026-04-25 02:20 33.93136 -118.30638 5759 ft 249 kts 123°
2026-04-25 02:20 33.92210 -118.28867 5387 ft 245 kts 123°
2026-04-25 02:20 33.91278 -118.27071 5038 ft 240 kts 123°
2026-04-25 02:20 33.90462 -118.25380 4934 ft 234 kts 111°
2026-04-25 02:21 33.90237 -118.23470 4689 ft 233 kts 85°
2026-04-25 02:21 33.90434 -118.21568 4453 ft 233 kts 82°
2026-04-25 02:21 33.90664 -118.19733 4253 ft 234 kts 81°
2026-04-25 02:21 33.90912 -118.17799 4004 ft 233 kts 81°
2026-04-25 02:22 33.91081 -118.16500 3836 ft 233 kts 81°
2026-04-25 02:22 33.91422 -118.13979 3511 ft 231 kts 81°
2026-04-25 02:22 33.91689 -118.12055 3259 ft 230 kts 81°
2026-04-25 02:22 33.91959 -118.10125 3018 ft 229 kts 81°
2026-04-25 02:23 33.92217 -118.08277 2965 ft 221 kts 81°
2026-04-25 02:23 33.92485 -118.06371 2965 ft 225 kts 83°
2026-04-25 02:23 33.92939 -118.04553 2944 ft 223 kts 56°
2026-04-25 02:23 33.94175 -118.03290 2946 ft 226 kts 21°
2026-04-25 02:24 33.95879 -118.03149 3298 ft 229 kts 343°
2026-04-25 02:24 33.97297 -118.04113 3537 ft 226 kts 312°
2026-04-25 02:24 33.98078 -118.05714 3564 ft 222 kts 285°
2026-04-25 02:24 33.98080 -118.07584 3564 ft 220 kts 250°
2026-04-25 02:25 33.97590 -118.08695 3572 ft 220 kts 235°
2026-04-25 02:25 33.96868 -118.10301 3573 ft 221 kts 250°
2026-04-25 02:25 33.96348 -118.12759 3572 ft 223 kts 260°
2026-04-25 02:25 33.96099 -118.14728 3574 ft 223 kts 262°
2026-04-25 02:26 33.95904 -118.16596 3570 ft 223 kts 262°
2026-04-25 02:26 33.95783 -118.17847 3394 ft 225 kts 263°
2026-04-25 02:26 33.95529 -118.20536 2981 ft 227 kts 262°
2026-04-25 02:26 33.95344 -118.22426 2685 ft 229 kts 262°
2026-04-25 02:27 33.95149 -118.24374 2354 ft 224 kts 262°
2026-04-25 02:27 33.94958 -118.26277 2058 ft 219 kts 262°
2026-04-25 02:27 33.94768 -118.28175 1784 ft 204 kts 261°
2026-04-25 02:27 33.94589 -118.29943 1511 ft 194 kts 261°
2026-04-25 02:28 33.94417 -118.31641 1237 ft 183 kts 261°
2026-04-25 02:28 33.94259 -118.33214 980 ft 170 kts 262°
2026-04-25 02:28 33.94117 -118.34648 705 ft 163 kts 261°
2026-04-25 02:28 33.93968 -118.36019 487 ft 144 kts 261°
2026-04-25 02:29 33.93840 -118.37287 282 ft 139 kts 262°
2026-04-25 02:29 33.93721 -118.38480 125 ft 131 kts 261°
2026-04-25 02:29 33.93613 -118.39464 118 ft 93 kts 264°
2026-04-25 02:29 33.93548 -118.40085 126 ft 39 kts 261°
2026-04-25 02:30 33.93532 -118.40366 130 ft 23 kts 272°
2026-04-25 02:30 33.93565 -118.40557 132 ft 20 kts 290°
2026-04-25 02:30 33.93594 -118.40693 133 ft 10 kts 273°
2026-04-25 02:30 33.93590 -118.40785 134 ft 10 kts 265°
2026-04-25 02:31 33.93587 -118.40837 134 ft 7 kts 272°
2026-04-25 02:31 33.93633 -118.40890 134 ft 7 kts 348°
2026-04-25 02:31 33.93690 -118.40904 134 ft 8 kts 353°
2026-04-25 02:31 33.93725 -118.40907 134 ft 0 kts 355°
2026-04-25 02:32 33.93726 -118.40907 134 ft 0 kts 355°
2026-04-25 02:33 33.93781 -118.40913 134 ft 13 kts 355°
2026-04-25 02:33 33.93835 -118.40921 134 ft 4 kts 341°
2026-04-25 02:33 33.93856 -118.40945 134 ft 4 kts 294°
2026-04-25 02:33 33.93859 -118.40982 134 ft 4 kts 269°
2026-04-25 02:34 33.93854 -118.41032 134 ft 8 kts 264°
2026-04-25 02:34 33.93848 -118.41110 133 ft 6 kts 264°
2026-04-25 02:34 33.93869 -118.41155 133 ft 6 kts 330°
2026-04-25 02:34 33.93920 -118.41172 133 ft 7 kts 351°
2026-04-25 02:35 33.93978 -118.41182 132 ft 9 kts 353°
2026-04-25 02:35 33.94053 -118.41193 132 ft 10 kts 353°
2026-04-25 02:35 33.94128 -118.41204 131 ft 11 kts 353°
2026-04-25 02:35 33.94215 -118.41216 131 ft 13 kts 353°
2026-04-25 02:36 33.94292 -118.41228 131 ft 6 kts 353°
2026-04-25 02:36 33.94344 -118.41235 130 ft 7 kts 353°
2026-04-25 02:36 33.94403 -118.41244 130 ft 8 kts 353°
2026-04-25 02:36 33.94460 -118.41254 130 ft 7 kts 340°
2026-04-25 02:37 33.94486 -118.41308 130 ft 7 kts 267°
2026-04-25 02:37 33.94458 -118.41357 130 ft 6 kts 228°
2026-04-25 02:37 33.94444 -118.41393 130 ft 0 kts 258°
2026-04-25 02:37 33.94443 -118.41399 130 ft 1 kts 262°
2026-04-25 02:38 33.94441 -118.41419 129 ft 2 kts 263°
2026-04-25 02:38 33.94439 -118.41443 129 ft 2 kts 265°
2026-04-25 02:38 33.94438 -118.41451 129 ft 0 kts 264°